GFSSW_2pvu_pres_090.txt.gz
Presure
181 196 186 189 200 197 195 207 201 209 195 189 181 214 183 166 205 203 216 195 180 169 209 209 204 143 201 211 183 208 186 163 155 152 197 231 173 222 223 197 214 222 239 231 271
180 189 194 193 195 193 198 180 197 210 177 160 166 200 179 199 190 181 175 169 166 208 212 214 205 159 211 199 188 199 175 203 199 164 173 224 205 222 219 215 219 211 230 265 274
181 181 178 132 184 198 188 200 182 199 198 192 212 196 207 187 179 249 198 172 218 170 206 207 205 201 196 197 185 194 199 204 197 203 208 206 213 220 216 218 224 230 223 221 260
176 189 178 193 194 196 190 184 191 204 163 207 157 194 196 218 196 202 142 166 205 172 193 212 159 191 196 138 199 196 199 187 178 195 204 206 202 194 217 210 219 154 220 218 258
182 183 189 187 191 144 172 198 153 179 190 156 202 200 194 197 185 229 179 176 214 193 161 195 198 213 196 195 195 192 189 196 199 205 196 204 199 198 217 209 208 219 226 216 249
190 178 147 192 184 184 194 202 198 195 189 190 205 200 199 213 187 197 251 182 213 212 203 205 196 153 206 175 196 193 192 181 189 191 192 200 208 201 202 211 203 215 219 209 276
188 185 193 195 195 199 171 202 187 199 194 194 187 201 219 210 169 192 147 225 210 149 161 219 210 182 200 190 177 195 186 191 199 194 192 196 196 209 195 210 200 218 203 204 217
191 185 196 202 196 197 179 192 187 201 201 167 215 226 193 204 203 208 170 244 228 214 184 178 174 197 167 200 196 188 194 190 194 186 196 190 200 205 199 209 198 208 209 206 219
197 206 202 197 189 201 193 203 204 196 188 202 224 222 220 224 232 175 210 146 206 205 215 216 186 210 201 191 198 191 204 174 185 198 194 189 192 196 203 201 199 203 217 199 199
205 206 205 207 207 205 210 214 223 177 212 219 219 215 205 218 211 246 239 233 224 180 204 194 205 227 206 178 184 210 125 189 185 191 192 190 193 193 192 206 197 196 203 210 191
207 224 225 225 226 223 218 233 181 229 215 229 220 253 306 248 266 265 244 232 222 199 215 226 159 233 198 195 171 206 191 187 190 200 189 191 196 196 187 205 199 193 198 206 212
230 229 207 198 221 229 222 204 230 231 226 225 264 193 292 265 281 255 236 222 227 216 229 216 202 204 218 208 212 197 185 142 183 202 192 187 194 195 198 195 202 189 205 210 208
228 213 222 222 236 232 244 237 217 225 219 211 319 298 280 239 268 249 243 234 220 219 214 223 200 200 209 215 201 206 207 198 187 203 193 188 192 192 196 187 201 190 193 213 206
227 231 224 216 226 234 235 248 240 223 291 193 292 289 281 266 269 259 237 224 226 217 222 211 220 204 225 208 202 213 206 194 185 185 194 178 189 190 188 180 203 186 191 198 217
238 242 225 219 214 236 210 207 262 207 326 312 290 275 278 262 262 243 242 251 236 219 226 230 220 209 229 223 205 198 207 204 194 199 193 177 179 173 184 191 200 185 186 188 203
270 239 255 252 262 279 284 310 293 308 286 312 288 274 265 257 227 242 232 244 241 251 208 228 206 220 225 212 216 194 209 207 198 187 194 180 193 180 186 194 194 189 184 196 200
292 288 301 298 287 296 300 287 287 287 313 280 284 269 254 239 233 249 234 242 235 240 212 214 208 228 223 216 211 191 208 205 203 188 196 187 186 192 191 190 190 195 175 188 195
262 290 314 259 300 267 288 310 302 300 316 307 273 272 257 236 229 232 228 225 216 217 214 209 243 229 219 212 214 196 209 209 207 201 184 190 186 193 191 190 191 196 187 188 185
306 319 322 315 310 303 311 311 308 299 306 299 272 264 249 243 233 223 245 233 219 255 250 246 241 230 222 213 207 208 212 208 197 202 190 182 183 185 180 188 188 194 184 173 189
306 323 340 342 343 340 339 337 303 299 279 295 255 262 247 256 254 228 234 220 82 97 251 235 180 219 221 210 203 209 201 213 212 196 187 198 174 180 178 185 188 197 183 180 179
336 343 354 341 342 338 341 340 357 292 273 289 288 271 250 252 246 260 227 116 261 236 245 235 231 223 218 191 207 210 197 216 213 206 196 184 189 187 188 190 188 193 186 179 181
359 366 352 347 349 350 339 339 335 346 268 274 281 267 247 256 248 256 227 239 251 240 248 239 232 217 215 183 166 210 208 213 216 210 208 204 178 187 188 192 188 189 181 186 179
376 370 363 355 349 345 340 332 339 329 357 269 282 276 248 263 258 253 234 238 246 240 247 229 241 223 226 222 218 206 206 212 215 206 214 199 184 190 186 187 189 190 189 185 178
379 370 345 340 339 345 399 458 341 268 347 272 277 278 251 256 254 259 245 240 240 186 236 231 226 229 231 219 221 217 218 223 217 226 210 208 199 184 182 188 189 189 197 186 195
364 349 333 336 355 385 452 433 408 315 338 277 275 274 274 257 264 263 255 235 246 243 238 234 233 232 225 222 230 216 207 210 213 215 225 215 218 202 188 185 191 190 195 202 192
353 328 325 321 363 389 435 420 397 315 330 281 271 273 274 269 257 231 244 248 232 244 256 237 232 234 231 226 223 224 222 211 216 220 217 223 222 211 213 197 183 188 197 198 187
315 331 342 344 364 384 415 402 352 83 251 326 255 275 273 146 231 260 247 248 227 243 252 221 250 238 227 228 224 220 223 225 221 221 231 239 214 219 205 197 203 199 190 193 205

GFSSW_2pvu_pres_093.txt.gz
Presure
122 167 131 168 176 169 173 154 183 205 198 208 203 204 192 216 180 200 208 181 213 193 214 164 213 187 211 157 152 206 207 207 206 192 205 216 209 214 213 179 191 218 231 238 238
187 179 183 208 171 192 176 172 175 181 198 180 192 201 208 199 199 203 188 221 222 193 181 200 174 153 206 165 195 191 202 202 206 203 194 196 205 207 205 214 205 210 203 238 231
205 194 188 202 191 184 176 138 176 197 190 179 179 207 202 182 182 219 209 161 158 214 204 214 203 199 189 201 215 218 206 191 186 198 202 202 203 193 187 213 208 207 219 227 224
196 183 190 191 193 193 187 184 184 184 194 181 182 203 202 207 202 211 211 216 204 199 162 148 181 208 166 187 208 189 186 200 199 199 197 199 207 210 204 206 209 209 203 219 233
188 189 184 184 190 188 189 185 193 186 183 186 186 173 180 186 209 174 197 198 197 177 205 214 201 189 188 208 202 209 200 173 192 180 184 197 204 199 198 203 208 197 216 210 226
185 185 191 192 193 189 186 188 191 191 191 187 188 185 182 172 184 206 189 203 204 210 219 201 200 238 175 208 190 184 207 193 184 194 188 188 202 195 197 196 192 206 211 204 216
200 194 193 193 183 185 188 192 190 194 194 186 201 194 190 206 190 205 195 202 175 207 207 232 212 235 223 201 197 203 163 190 195 203 190 193 189 198 193 192 197 202 217 205 210
192 219 205 202 196 186 191 190 190 189 192 194 195 195 203 181 210 199 210 204 211 210 209 188 196 209 178 202 143 198 153 195 191 196 180 196 195 195 196 196 193 199 210 205 213
189 227 209 212 210 201 200 203 196 194 192 194 202 201 205 202 185 210 203 204 214 213 192 163 198 243 178 189 191 209 144 155 168 195 181 196 196 174 191 192 195 199 198 209 203
220 217 198 196 206 213 208 202 210 210 199 207 206 203 193 207 209 206 221 216 233 231 229 222 187 246 229 212 184 200 187 194 114 188 185 187 198 197 187 194 199 200 191 211 199
230 224 234 227 205 200 200 203 221 210 222 209 201 210 213 217 211 231 226 232 227 237 218 284 233 241 225 190 208 139 220 211 203 201 188 171 193 192 195 187 195 199 195 207 198
249 240 225 240 229 210 217 212 207 224 215 213 229 213 226 232 225 189 239 230 227 268 222 289 247 234 223 219 220 212 192 216 212 207 194 189 187 189 189 189 195 194 199 197 200
243 239 259 230 241 227 223 224 225 220 220 224 227 196 234 237 249 226 237 225 218 322 293 269 243 231 225 216 221 201 206 210 215 189 83 201 190 187 189 193 193 190 197 199 193
241 238 246 247 238 226 236 239 222 225 226 232 219 210 216 230 239 239 258 297 299 291 277 277 250 229 226 223 207 217 208 217 208 221 204 197 190 184 190 195 191 191 190 183 194
236 252 242 230 248 235 242 237 244 234 227 237 226 243 226 225 208 243 317 301 285 282 276 280 241 227 227 219 226 208 199 201 212 204 212 197 190 184 183 193 183 187 178 194 201
322 273 249 237 254 240 242 233 240 230 236 237 247 223 211 218 313 333 304 298 278 279 272 243 233 227 220 225 225 213 199 198 222 219 208 201 189 188 184 191 190 185 178 198 199
294 291 300 320 296 277 269 249 255 255 249 266 228 250 257 325 313 308 290 281 269 265 264 246 235 232 223 225 221 231 211 199 218 213 218 183 190 194 192 192 187 180 186 188 197
320 325 320 304 283 281 299 305 312 262 257 270 246 264 294 271 317 298 287 269 268 256 256 252 244 238 224 221 228 225 212 203 225 215 216 196 196 189 194 188 187 181 189 197 196
348 347 333 322 304 297 302 278 275 314 311 307 312 272 287 277 294 278 280 270 259 255 253 238 238 246 241 226 225 229 215 209 219 206 216 207 195 188 197 191 187 182 189 192 197
368 349 329 335 332 317 325 313 289 287 259 260 311 273 265 267 299 265 278 263 257 251 246 228 234 240 247 261 247 218 209 214 213 216 218 207 201 194 197 198 188 187 186 190 195
368 347 331 342 355 342 344 328 313 276 326 304 296 297 289 279 271 266 282 255 259 227 246 213 239 238 239 235 214 213 207 222 217 216 211 208 193 197 195 197 189 184 187 186 185
374 369 355 346 353 361 342 331 332 339 342 344 338 313 293 281 298 284 263 268 250 237 228 231 224 222 215 218 212 230 230 217 221 208 204 215 197 197 195 199 188 194 189 185 185
363 359 357 349 365 364 353 327 327 345 351 344 344 336 300 282 291 281 265 268 258 236 117 224 227 224 217 240 244 235 234 217 216 211 200 202 207 196 191 198 190 197 194 189 191
354 350 353 362 355 363 371 366 363 362 349 354 335 327 339 284 290 266 266 254 252 243 244 219 225 229 240 245 235 232 223 228 218 211 205 206 205 204 197 196 202 195 188 192 188
359 363 359 361 373 366 360 354 355 358 354 351 336 321 330 284 283 277 264 265 243 243 246 251 223 239 239 238 236 230 226 232 221 215 212 207 204 206 201 203 199 199 196 189 191
365 362 366 364 357 343 348 341 343 340 334 343 325 326 327 278 278 284 263 258 260 245 240 250 223 255 234 244 232 230 231 221 220 221 214 215 205 205 206 206 207 198 194 189 190
360 353 355 342 339 337 333 331 198 356 379 354 325 335 316 275 278 289 268 262 260 250 242 250 249 254 241 242 234 232 224 222 224 224 220 214 208 213 211 204 204 202 197 192 192

GFSSW_2pvu_pres_096.txt.gz
Presure
147 139 111 201 202 194 206 210 191 198 147 189 186 135 158 181 160 190 214 194 205 193 213 195 165 191 198 208 202 218 196 200 181 226 179 183 208 204 168 201 203 208 204 222 223
118 186 185 186 174 173 189 174 205 184 164 129 145 192 134 186 159 159 198 199 206 199 209 233 211 223 190 202 210 170 177 205 207 205 198 187 200 207 185 205 209 164 210 217 219
176 206 160 122 153 196 191 179 182 222 202 198 204 188 158 196 203 179 199 194 209 203 185 203 216 219 194 220 200 210 212 201 194 173 190 162 186 189 202 203 200 212 206 204 217
192 195 189 192 188 188 141 192 208 212 204 204 200 194 198 193 186 194 202 188 191 176 208 217 181 209 201 198 174 190 199 193 190 198 190 190 179 203 199 175 200 204 205 196 209
191 201 191 187 184 195 174 187 186 187 191 190 182 187 190 195 196 205 193 194 178 187 198 193 188 180 185 211 197 211 170 200 172 208 186 188 191 189 174 193 206 186 208 200 206
162 187 211 197 180 196 188 194 191 186 186 185 189 190 188 190 189 189 193 196 200 199 203 205 198 196 222 204 206 194 218 201 190 204 167 194 182 198 197 196 192 190 200 201 201
194 176 177 192 186 199 196 194 200 199 199 188 188 192 193 182 190 192 193 194 160 192 199 202 209 214 213 184 195 199 185 231 198 183 148 167 190 195 187 208 193 198 198 200 199
204 206 207 188 195 154 196 213 198 205 206 194 193 194 194 185 184 194 195 194 193 193 198 194 211 210 220 215 230 196 197 182 173 178 191 207 200 170 181 206 192 192 200 199 199
202 200 188 151 218 192 196 196 202 195 209 217 205 203 200 197 192 189 191 190 194 192 192 197 213 228 210 212 228 194 206 188 186 198 210 197 195 187 194 182 195 198 194 194 204
210 189 205 196 194 196 217 213 202 196 198 194 221 214 207 194 199 194 207 202 197 201 208 184 210 210 219 233 231 220 207 184 192 204 205 203 150 198 192 162 196 195 201 195 200
223 214 208 210 222 216 200 200 223 178 204 230 190 187 189 212 205 206 208 202 199 208 219 182 210 228 218 236 239 214 222 224 237 152 199 206 192 191 201 192 191 181 191 187 195
229 229 225 228 227 210 219 214 220 226 224 219 217 231 216 206 201 206 203 202 217 211 205 214 235 220 230 242 233 234 256 253 211 149 216 203 201 192 200 195 153 185 188 195 202
225 228 224 238 232 226 219 219 220 232 226 212 226 227 230 231 212 206 216 200 209 208 221 223 240 241 258 235 223 206 274 197 234 222 217 220 189 206 200 199 194 189 188 197 207
256 229 233 225 229 222 224 230 236 245 240 213 229 255 231 242 234 214 204 226 216 226 210 226 216 237 250 248 297 295 253 241 233 223 214 224 201 200 192 195 195 192 186 195 206
280 266 275 268 268 243 264 254 252 241 254 241 243 237 245 223 239 231 230 221 220 220 227 249 242 221 236 321 298 279 242 238 228 224 224 212 202 201 202 187 198 188 193 191 199
325 310 308 309 320 305 274 267 269 252 254 147 214 89 240 239 241 244 238 241 240 236 248 228 248 215 235 292 285 264 239 235 225 224 227 205 202 214 202 196 201 195 181 190 190
349 351 352 353 342 341 337 328 314 295 289 230 198 240 247 240 227 228 236 229 243 242 232 235 230 315 300 289 273 257 236 231 224 225 209 202 225 197 195 194 196 194 185 191 188
442 422 409 433 357 355 343 311 324 307 324 304 287 279 234 234 249 245 248 249 248 225 259 242 337 302 278 277 261 266 244 227 226 226 217 212 204 186 189 203 194 193 180 189 191
509 480 391 392 411 353 323 356 346 327 288 307 298 291 263 244 255 243 243 218 247 236 214 292 313 285 275 269 265 253 234 224 225 224 223 216 204 191 207 200 196 195 186 190 190
458 440 408 365 398 388 338 341 325 319 328 327 294 302 311 298 302 308 289 277 257 264 312 298 298 288 268 258 249 245 228 219 226 223 219 218 203 221 209 202 198 192 185 196 191
421 407 389 354 371 378 374 358 329 317 338 320 297 308 282 279 293 286 319 312 315 296 294 289 284 275 258 254 249 238 232 228 228 215 219 217 209 203 212 198 194 198 198 198 191
389 381 372 367 365 367 362 364 333 343 321 335 322 319 256 289 295 277 280 282 264 276 284 286 275 268 254 253 247 241 241 228 228 216 218 218 208 206 224 211 205 200 204 192 194
374 376 366 362 361 359 352 349 335 333 332 344 346 323 317 295 265 301 272 265 279 264 283 245 265 262 254 252 237 233 234 248 243 223 212 223 207 201 207 212 207 198 200 199 189
369 367 361 358 360 350 349 343 335 323 333 362 343 336 333 321 322 260 304 293 288 287 251 262 261 259 255 243 241 230 229 245 252 243 222 206 197 196 205 217 219 205 200 199 197
352 346 344 346 350 346 344 343 342 347 356 362 347 337 322 323 336 340 332 293 278 302 285 269 261 258 252 243 251 231 235 237 244 228 211 204 203 207 216 210 209 200 200 195 196
338 342 349 344 348 340 344 344 345 353 352 364 358 357 322 350 335 337 330 295 280 297 287 262 255 255 251 236 233 225 224 222 214 210 211 207 215 208 212 207 199 208 207 198 197
340 343 349 345 354 353 341 352 348 351 353 349 355 359 348 340 340 334 342 307 281 295 279 272 253 259 248 247 225 229 225 218 217 216 239 233 217 212 216 209 207 208 198 206 206

GFSSW_2pvu_pres_102.txt.gz
Presure
193 197 197 195 169 170 174 147 188 175 155 130 138 158 170 179 168 172 174 201 207 189 191 195 138 207 179 189 200 190 192 186 209 185 174 192 222 179 192 214 226 211 199 196 176
180 184 191 187 188 189 162 159 182 188 185 151 157 195 179 190 145 155 120 126 171 148 179 203 195 206 182 197 197 197 203 200 187 180 193 213 207 201 190 171 179 201 211 205 206
198 188 205 185 187 184 182 190 187 178 117 182 193 191 180 200 114 141 120 163 158 182 162 179 188 191 187 204 199 207 179 188 212 195 198 206 185 198 216 177 211 206 213 211 210
204 194 151 205 200 178 179 186 176 174 186 170 169 162 161 175 179 166 148 145 170 213 190 192 150 200 219 206 207 198 196 207 183 192 204 217 231 194 203 230 231 213 211 214 204
215 193 209 211 195 174 201 168 170 183 188 181 194 156 185 167 190 184 188 186 196 201 191 200 213 198 189 206 200 199 202 201 205 203 210 209 212 203 170 188 224 232 216 209 194
227 224 205 204 173 211 199 186 188 191 178 189 184 183 167 194 193 195 185 187 193 221 207 199 198 212 198 190 206 191 195 201 205 190 204 188 211 185 192 208 196 234 187 206 192
200 221 219 208 198 207 193 207 214 194 175 197 198 190 181 178 196 181 183 198 194 182 190 199 193 191 194 192 191 192 195 197 199 201 210 213 189 219 206 172 218 225 218 210 194
196 204 220 221 214 217 202 205 209 196 200 206 203 202 197 204 185 162 209 207 197 195 192 192 199 196 190 197 187 196 200 195 198 204 208 214 223 215 209 213 181 212 190 198 200
237 224 209 200 225 227 224 219 200 196 193 201 192 192 182 186 185 188 191 192 205 195 183 192 192 196 195 200 202 201 190 197 208 205 209 211 229 190 174 197 230 215 241 196 176
237 206 228 214 217 220 234 239 228 229 205 197 194 199 184 197 193 192 201 160 192 196 190 194 202 203 205 192 196 210 210 210 209 192 205 221 228 222 221 191 232 224 200 225 214
242 246 249 243 250 234 255 233 239 197 217 193 203 202 199 203 204 202 200 220 205 205 190 196 205 218 201 208 206 213 204 205 179 212 230 218 217 180 218 225 279 227 230 235 209
228 239 240 248 242 252 254 256 258 244 242 228 225 216 208 220 217 191 200 197 196 198 198 200 217 201 194 207 210 203 205 204 198 208 219 138 194 213 213 213 243 234 221 229 205
254 255 249 252 249 243 259 257 261 251 265 262 254 236 221 224 219 178 225 223 217 222 220 210 215 202 210 209 204 208 205 203 213 206 216 226 225 223 222 235 217 228 224 224 203
251 242 243 246 242 247 256 249 264 259 267 264 263 239 239 239 249 226 207 218 219 211 201 225 209 224 215 203 215 202 195 210 207 213 215 224 209 214 213 228 207 216 221 228 195
245 243 245 246 246 244 252 257 252 263 132 233 258 254 253 244 240 234 232 243 234 234 240 238 215 241 244 227 222 213 209 221 226 211 240 226 234 193 230 223 207 186 224 219 220
249 247 253 257 267 272 265 261 269 279 315 335 118 184 261 257 253 256 247 243 240 239 240 227 237 228 234 238 239 231 232 215 217 247 234 235 247 248 241 219 259 250 232 223 214
260 247 267 265 256 277 302 273 266 337 371 354 356 366 175 326 297 258 248 247 249 243 244 241 227 236 243 228 226 240 233 230 240 255 247 233 142 251 209 314 271 229 226 221 231
261 292 316 308 319 350 345 358 359 509 526 356 397 359 360 349 374 317 309 275 257 251 253 248 244 238 232 229 220 225 240 243 249 248 245 253 269 238 264 290 254 225 223 219 217
311 291 340 343 342 361 539 539 449 422 444 436 430 398 376 369 350 124 325 313 306 295 292 291 288 269 254 251 240 234 244 252 245 255 257 254 238 234 319 264 242 221 224 222 219
302 324 329 373 431 488 476 481 424 421 242 400 391 377 362 381 104 341 348 389 369 307 305 302 297 283 263 254 257 251 238 235 247 240 237 241 236 305 287 254 231 220 220 216 223
317 311 435 404 417 440 418 413 420 389 378 379 358 359 362 334 272 291 299 311 318 336 310 300 301 287 285 282 264 255 251 250 245 241 251 232 238 296 269 246 229 220 220 220 216
299 429 401 383 393 397 390 381 378 367 368 362 357 349 339 334 340 324 289 307 317 313 321 330 324 298 293 280 278 272 251 251 245 241 242 242 276 284 258 235 228 217 215 220 214
431 379 358 375 370 382 373 370 361 357 358 352 345 352 344 337 344 332 312 311 320 316 303 318 339 302 307 291 284 277 274 269 258 257 253 267 277 273 250 230 226 217 213 216 215
358 340 362 370 366 377 373 358 350 344 344 343 335 344 338 330 327 337 322 318 339 317 286 305 298 296 302 308 307 300 287 270 281 310 298 283 264 264 242 229 222 217 205 208 204
347 342 354 347 356 353 353 356 345 337 335 335 341 336 332 324 316 323 312 303 331 325 297 297 300 312 283 292 311 319 311 304 295 286 269 257 260 253 242 229 222 220 206 207 217
350 340 360 348 343 348 356 350 341 337 341 343 340 336 332 330 332 320 318 305 291 307 301 292 277 280 268 272 293 308 301 289 280 277 257 251 248 249 244 230 219 223 214 210 215
353 347 356 344 344 345 341 343 342 345 346 342 339 333 328 328 331 327 322 314 306 304 304 297 287 282 265 264 250 288 301 277 273 264 256 250 244 239 232 228 224 217 207 211 220

GFSSW_2pvu_pres_105.txt.gz
Presure
207 154 194 189 195 144 196 194 167 165 196 195 185 192 193 191 194 189 190 196 169 163 180 171 197 159 151 211 194 164 179 206 208 210 186 211 188 208 204 182 149 204 224 206 211
220 209 198 190 193 188 194 181 191 180 190 167 142 186 191 180 157 133 140 174 176 175 187 139 165 174 196 132 158 135 188 178 208 198 207 188 219 205 205 197 200 207 206 199 165
177 206 207 207 203 190 194 193 189 171 193 182 177 163 192 158 172 176 187 193 183 191 143 178 179 110 125 169 160 161 159 168 205 208 209 210 193 211 217 195 182 207 188 221 218
211 189 192 210 209 104 203 192 189 200 178 171 183 192 181 183 184 179 187 132 185 181 188 195 126 153 183 181 197 200 213 203 206 211 199 204 201 212 210 217 202 204 205 206 214
206 192 219 227 202 211 212 192 197 195 190 177 198 176 172 186 182 179 185 184 172 179 181 142 191 190 188 192 199 184 224 196 194 210 204 205 201 210 209 211 190 211 190 189 177
216 191 231 230 226 214 202 210 225 202 199 202 194 188 192 185 163 178 188 172 181 183 192 181 198 195 202 205 210 195 212 214 198 193 197 201 204 212 203 214 189 220 202 210 201
234 229 221 204 215 203 228 215 192 205 196 204 197 187 197 188 197 184 190 192 183 182 187 180 183 190 179 203 188 205 199 200 223 202 196 201 213 203 206 209 219 198 213 178 224
251 247 209 237 183 208 238 195 207 217 221 213 232 207 190 207 179 196 192 191 197 182 182 191 191 191 188 180 185 196 186 188 192 190 201 217 199 202 210 222 218 215 191 219 232
264 253 241 252 234 241 231 217 213 204 218 231 221 211 218 213 194 196 206 191 192 200 190 159 199 187 192 196 209 188 194 186 186 195 197 205 196 194 216 204 203 223 200 205 220
261 274 267 260 244 241 213 231 218 221 235 201 222 218 194 204 215 218 213 190 200 198 197 199 195 203 186 203 200 184 188 198 192 189 200 204 196 209 201 192 208 199 202 197 220
264 260 257 255 232 245 252 248 254 195 242 211 223 211 218 232 223 196 211 215 207 195 195 203 200 195 183 197 191 188 196 200 201 191 194 212 222 220 204 220 214 222 203 199 183
256 255 255 230 263 252 257 250 252 238 250 251 242 230 220 231 234 226 224 238 212 209 209 202 206 204 199 198 199 191 210 185 194 188 207 216 216 208 208 199 205 220 221 198 220
259 254 236 238 252 252 242 262 246 253 263 251 244 253 255 250 252 254 242 241 240 237 215 208 207 209 206 201 202 203 198 196 198 200 205 210 215 208 144 147 150 219 214 210 210
251 242 244 249 258 261 257 256 258 262 268 125 249 252 256 257 277 257 228 260 176 239 232 237 233 232 218 222 215 229 217 210 220 207 214 221 224 199 196 191 210 225 200 226 210
256 256 256 246 254 252 260 257 251 253 269 269 148 260 274 259 246 259 246 116 259 253 244 248 244 242 234 228 221 227 231 219 215 220 225 210 244 207 207 208 210 225 212 231 236
262 266 268 267 272 273 267 267 269 272 273 274 87 290 279 266 256 257 255 255 253 251 258 257 254 242 240 236 237 237 229 238 222 216 249 219 142 183 219 225 210 229 237 234 262
254 255 261 267 274 274 279 324 287 325 314 353 193 209 322 361 363 300 263 248 253 144 251 250 246 241 237 238 237 237 234 236 235 245 235 228 169 243 234 220 213 250 233 244 245
263 266 278 262 260 327 318 304 343 365 364 360 449 105 374 375 268 342 341 353 333 265 259 251 162 136 246 245 241 238 236 234 242 246 226 233 224 75 220 233 248 245 251 247 229
257 261 261 303 324 294 344 340 483 504 446 426 448 441 431 419 384 363 352 358 345 328 344 327 279 260 252 241 244 233 238 223 229 241 237 243 240 234 243 243 244 246 239 239 270
248 276 305 293 290 331 351 441 462 442 419 407 423 408 265 389 393 399 350 341 333 353 336 305 321 291 276 264 253 251 240 238 247 247 243 244 240 243 237 241 246 239 242 278 256
270 284 277 289 325 334 372 413 430 410 404 396 410 385 376 359 368 374 357 343 322 338 389 324 311 308 299 286 270 256 257 266 266 259 255 240 242 226 238 241 240 237 298 256 246
284 283 281 320 297 375 390 395 400 405 396 395 375 355 359 344 338 327 313 143 340 311 352 314 325 314 301 299 297 291 284 279 277 270 258 246 240 233 241 245 226 249 301 259 239
288 280 321 297 363 366 379 386 390 393 401 387 364 363 358 337 327 310 155 237 320 296 306 323 373 312 284 291 299 301 285 280 278 268 261 250 247 238 240 227 223 264 261 246 232
275 306 305 312 349 357 381 361 370 373 376 369 354 353 357 331 330 307 297 303 294 287 296 300 297 303 327 322 312 295 287 285 283 278 281 260 248 243 233 236 232 275 242 240 223
296 297 289 339 352 352 373 369 362 360 364 354 346 342 358 332 340 316 309 290 284 280 288 299 295 264 291 326 305 287 304 316 306 291 274 267 264 264 253 240 286 271 228 244 227
290 292 329 322 362 358 358 359 362 362 352 351 342 335 332 342 334 323 306 298 292 297 303 294 297 286 284 298 305 311 310 304 304 306 296 283 274 256 248 284 271 241 231 228 222
295 291 369 320 362 358 356 344 341 354 351 349 334 320 334 328 327 329 315 320 277 308 304 294 292 292 278 295 291 282 283 309 312 285 274 273 271 293 275 263 259 236 235 232 222

GFSSW_2pvu_pres_108.txt.gz
Presure
169 197 145 191 206 204 194 206 194 180 184 194 201 185 199 192 195 126 190 184 196 190 190 142 191 201 187 173 186 195 183 188 201 201 210 200 202 199 197 187 206 198 205 207 209
155 139 206 172 195 211 190 202 169 158 192 193 205 196 190 190 190 193 195 188 183 157 202 176 173 183 196 178 171 194 169 192 191 190 200 150 196 197 186 178 214 216 200 204 199
239 191 197 177 186 133 216 197 198 206 198 188 191 186 195 193 182 192 191 199 187 184 185 160 197 188 188 194 190 198 189 166 162 200 187 174 180 195 158 186 212 195 210 205 202
216 150 225 142 169 214 232 205 218 196 199 203 186 190 186 185 197 189 171 180 186 160 190 198 188 178 167 191 177 167 126 149 181 188 127 180 191 193 183 194 219 202 208 190 222
186 189 179 157 221 183 189 229 220 214 224 193 203 196 189 190 187 198 181 190 175 170 182 160 180 172 188 172 188 172 186 173 167 158 195 202 198 197 198 211 205 203 204 206 206
189 192 202 201 235 227 204 228 215 225 208 215 181 196 200 193 192 193 192 176 194 193 190 180 174 192 189 187 193 141 146 186 192 164 194 184 200 183 194 209 201 203 202 200 172
205 206 204 257 237 229 228 202 247 243 206 240 191 214 216 202 203 191 194 186 184 188 173 193 201 193 190 185 195 189 200 140 167 189 179 206 189 210 218 238 199 207 201 208 206
190 195 261 225 241 310 267 264 238 254 234 199 212 237 214 222 223 204 208 210 203 196 201 189 184 188 190 197 199 201 152 186 178 182 200 194 101 184 193 199 214 207 206 197 191
197 215 289 221 246 296 289 263 265 227 237 256 218 223 210 238 209 208 192 212 201 197 212 199 188 187 186 182 188 192 187 185 198 197 194 201 64 207 190 201 203 205 208 209 191
235 227 282 308 301 292 282 283 270 255 246 244 247 232 210 229 206 230 229 224 206 233 220 209 205 198 206 197 194 184 189 198 188 202 191 193 183 183 187 199 211 198 196 207 183
231 254 296 292 288 287 282 279 264 262 259 256 254 244 237 216 203 240 228 218 226 226 226 242 209 223 217 212 205 218 195 196 180 185 193 203 189 198 197 196 209 202 160 211 215
236 296 282 277 267 275 266 262 267 273 264 254 255 257 251 250 240 235 217 218 232 234 231 237 234 110 239 207 211 213 208 205 195 203 209 197 186 203 194 197 194 206 201 211 202
209 292 279 272 269 266 262 265 265 266 262 250 238 253 243 245 249 241 240 250 225 222 230 226 220 219 230 240 233 207 201 202 208 211 208 204 152 203 210 204 197 138 83 150 211
280 288 282 272 268 263 263 256 267 262 273 260 247 247 247 256 244 255 248 258 253 249 242 237 237 229 225 216 214 236 228 226 212 204 198 201 206 209 203 203 200 204 199 208 219
284 283 273 272 262 267 271 270 259 267 271 75 271 273 269 265 76 262 260 253 257 257 257 218 262 260 254 236 233 231 231 236 236 238 229 219 215 205 211 198 204 205 208 219 212
290 279 268 270 263 256 260 270 277 281 279 72 227 297 185 299 288 278 256 168 252 261 255 251 251 263 255 246 249 243 233 233 237 238 237 233 234 226 219 222 221 221 237 228 237
280 276 269 259 261 260 267 270 275 269 278 331 336 348 367 321 94 289 302 269 269 240 195 192 268 264 256 258 254 248 245 242 241 238 244 242 238 143 231 221 228 216 227 248 237
272 267 267 263 262 253 251 257 272 325 306 352 457 505 148 139 478 492 482 357 318 271 263 263 251 260 256 250 246 239 244 248 246 252 251 247 130 78 232 101 92 104 243 234 234
271 262 268 253 254 252 255 303 304 342 336 439 468 454 473 417 450 474 443 373 375 307 330 295 285 259 257 247 252 243 249 238 240 245 248 252 247 244 202 150 80 101 235 217 241
271 268 250 243 252 272 286 282 310 322 391 435 452 427 422 406 408 377 372 384 360 340 360 351 332 310 267 255 252 246 242 236 238 239 245 247 237 231 223 226 243 240 238 239 245
270 260 251 256 265 276 280 308 315 325 418 424 416 402 397 396 370 353 343 341 350 352 357 339 353 329 321 318 270 253 250 247 246 241 242 241 234 230 230 226 232 237 244 236 247
262 243 256 261 273 284 290 314 290 353 403 405 424 398 398 355 355 338 326 329 331 325 350 343 366 372 332 315 328 327 303 283 255 249 252 247 241 227 229 226 229 248 244 245 234
247 248 258 275 288 281 305 310 339 375 384 397 421 390 353 349 345 331 323 333 325 332 85 343 341 385 325 320 314 309 312 299 293 280 269 252 234 241 238 238 252 255 239 238 236
255 254 266 270 271 300 289 300 335 378 376 388 403 390 346 340 326 316 308 311 316 225 320 285 325 322 328 318 304 315 313 302 296 290 281 276 263 252 252 257 256 250 240 239 230
257 262 272 265 283 291 303 374 340 374 368 383 371 387 349 330 324 308 310 305 299 308 300 248 293 314 331 317 324 302 299 295 298 297 291 282 275 274 272 266 254 243 242 239 226
260 263 264 277 289 283 302 367 363 368 364 381 372 363 341 325 322 315 296 309 298 304 301 302 306 315 328 327 321 290 295 286 297 293 313 298 282 282 270 264 251 248 234 230 232
273 279 272 290 285 291 379 335 357 306 365 362 364 355 361 319 324 317 315 301 309 299 291 292 289 288 285 290 354 315 306 298 317 331 306 287 283 278 270 265 266 257 233 227 245

GFSSW_2pvu_pres_114.txt.gz
Presure
158 160 138 198 183 182 129 147 188 194 133 209 125 221 224 213 209 211 197 189 222 212 199 186 159 212 211 219 198 216 198 210 201 204 208 173 212 209 203 192 202 187 191 205 193
194 186 124 140 173 187 181 165 174 166 178 170 178 211 155 200 201 206 198 173 191 149 155 163 152 181 211 200 205 202 203 202 197 202 207 212 164 154 188 198 199 178 199 181 192
127 115 118 136 163 119 135 133 113 135 198 206 149 206 180 210 200 170 226 191 194 194 181 216 143 212 126 205 207 207 204 193 195 196 198 203 198 193 143 155 178 176 195 187 157
201 195 166 180 206 189 190 194 158 179 208 198 191 200 156 153 152 185 202 174 221 177 197 200 179 216 200 206 187 204 200 148 194 199 203 205 205 205 205 189 192 199 173 150 187
162 183 180 204 159 196 184 203 173 197 172 186 211 211 201 221 225 171 206 187 169 213 215 189 194 184 197 195 209 200 196 199 197 198 197 197 187 142 196 195 192 203 164 190 200
173 197 200 196 206 190 207 207 174 223 219 204 229 233 236 242 215 199 234 209 222 201 197 213 209 203 195 176 187 206 205 193 195 201 195 191 198 198 178 163 173 191 79 159 195
195 195 197 144 202 196 207 208 212 213 225 242 229 240 256 347 193 230 242 220 169 161 203 211 211 209 216 179 178 190 208 200 189 195 200 197 195 202 199 202 204 200 208 213 193
198 195 198 204 209 187 220 208 241 226 232 229 252 258 245 260 282 233 256 246 217 234 203 223 172 221 213 205 185 175 206 203 202 207 202 196 197 174 184 205 202 179 206 189 175
196 186 200 206 206 208 219 222 230 238 231 234 254 251 242 309 308 300 295 291 293 257 245 237 205 221 216 215 212 191 192 204 196 193 196 191 152 208 208 207 204 195 205 197 195
200 211 190 206 217 213 216 217 230 226 235 244 247 242 304 288 286 289 286 278 281 269 255 242 224 233 216 216 223 209 201 182 192 196 203 202 192 189 192 197 205 100 192 199 193
205 200 207 212 222 217 222 223 224 217 240 244 230 297 300 287 280 273 276 273 271 269 273 258 241 217 237 228 216 220 216 209 201 200 191 189 200 195 199 194 203 206 206 204 189
203 214 214 209 214 216 217 215 215 229 241 237 261 309 300 290 275 270 262 271 265 263 256 271 259 232 231 235 229 224 230 208 227 219 212 200 191 204 196 188 187 193 190 191 197
217 208 205 215 212 206 218 218 215 224 237 225 272 301 293 286 283 275 272 269 273 262 264 249 254 242 232 227 232 217 222 215 218 230 213 221 217 212 210 214 212 199 193 180 204
214 211 215 207 222 219 222 214 234 230 254 258 305 302 287 282 286 281 281 275 277 270 272 269 240 254 241 235 230 220 224 218 217 212 231 222 215 224 209 207 216 219 217 212 192
208 211 212 206 227 217 219 235 230 246 244 270 297 299 295 293 288 288 289 293 294 282 282 280 280 262 256 234 248 220 226 224 224 225 224 226 215 214 200 214 214 224 214 213 219
215 223 223 234 213 227 233 234 249 227 255 298 291 293 304 283 276 283 268 270 281 293 295 310 286 288 276 257 247 239 236 236 237 234 233 226 226 227 206 210 211 224 211 204 162
204 217 226 227 226 229 230 236 229 255 265 294 298 289 267 266 269 299 327 351 443 487 491 170 313 300 289 286 263 257 248 239 235 248 233 217 227 225 229 223 214 217 210 216 208
220 225 227 218 229 232 225 229 242 260 279 302 293 266 271 291 316 336 437 438 426 454 439 448 510 297 317 235 277 271 260 256 251 249 235 238 232 231 214 221 221 210 210 221 220
227 228 221 223 226 228 257 242 258 276 284 302 264 271 290 313 315 429 427 417 411 393 390 292 123 455 409 318 288 271 269 175 253 253 254 258 252 242 241 242 232 237 210 224 222
224 217 222 219 228 231 239 249 261 278 285 283 270 277 299 328 329 440 390 395 380 368 368 100 149 412 474 372 301 293 274 263 262 260 255 257 247 248 249 252 252 152 243 146 237
231 234 225 233 222 251 247 258 274 277 283 263 277 292 311 318 432 433 249 356 375 324 343 318 358 360 377 381 340 297 291 281 269 263 260 257 251 254 259 259 78 129 121 248 238
230 212 226 220 257 238 253 256 272 277 273 267 283 299 310 324 451 404 106 350 353 330 334 325 333 332 338 347 393 344 318 292 280 269 262 257 253 256 246 242 248 263 259 252 244
222 227 227 250 237 253 255 264 267 274 268 275 288 304 310 369 376 379 355 349 337 322 313 316 307 315 332 335 369 341 310 325 292 279 271 269 260 259 250 252 253 252 248 248 244
223 221 249 246 252 250 260 262 269 283 264 278 298 304 309 353 367 378 340 328 345 320 315 309 308 221 323 335 335 340 333 315 332 293 270 276 267 263 251 257 241 242 238 233 238
252 235 246 249 252 256 255 258 278 253 275 284 300 301 325 346 408 371 348 328 334 335 305 304 305 302 136 330 327 319 292 333 337 311 303 280 275 272 251 247 246 237 236 235 235
238 250 246 249 250 251 253 265 262 269 283 293 294 305 362 332 419 366 338 332 334 309 300 312 308 313 324 326 333 100 315 313 307 342 371 324 298 282 264 261 248 242 242 239 239
253 246 248 252 247 249 255 270 261 290 290 292 285 306 359 318 408 372 336 339 320 305 296 296 301 299 164 316 334 327 180 305 315 317 313 363 310 306 288 267 260 261 249 243 243

GFSSW_2pvu_pres_117.txt.gz
Presure
179 180 168 128 192 137 187 195 138 162 186 210 162 122 115 199 206 204 124 212 207 183 192 219 151 216 137 204 221 224 211 194 216 215 213 214 215 172 215 213 204 208 207 215 207
183 165 186 184 169 157 184 123 145 158 122 188 180 199 197 127 186 215 118 161 219 211 205 230 213 203 192 183 223 194 114 132 196 142 168 219 221 225 220 182 206 200 198 207 197
137 181 182 158 174 196 154 198 192 143 188 210 141 172 160 138 158 126 194 124 203 220 197 140 162 217 200 202 195 132 215 189 196 143 205 182 109 208 205 174 197 195 196 199 196
183 185 184 179 165 187 173 197 165 195 204 200 164 201 159 223 118 206 149 161 177 235 204 192 211 186 208 192 200 209 180 182 209 202 145 212 206 213 203 69 194 197 196 204 209
173 194 158 181 198 190 188 191 201 191 174 202 207 210 211 180 221 187 235 183 214 174 238 238 210 212 199 187 186 199 187 192 183 181 202 206 203 113 171 208 196 196 194 191 150
175 185 195 183 157 189 186 196 177 192 151 202 209 207 196 177 175 179 204 191 221 208 238 223 228 224 182 199 202 221 190 202 191 182 203 196 196 205 181 194 193 192 192 196 143
185 183 185 202 117 152 190 200 199 197 206 212 204 201 232 222 202 219 237 253 267 277 268 252 227 183 248 200 180 206 184 215 171 187 169 194 205 188 201 205 193 193 197 195 74
183 172 186 191 204 191 199 202 204 207 207 205 211 209 241 220 225 228 233 263 265 285 234 270 268 280 200 242 233 188 193 180 191 208 174 169 180 192 200 200 207 196 196 201 191
172 162 187 200 192 165 199 208 203 190 203 211 212 219 231 225 234 231 245 260 262 250 323 317 324 274 242 258 235 239 183 212 188 197 193 206 182 176 194 201 201 204 200 204 197
175 174 189 193 204 134 202 201 203 195 207 206 221 222 232 236 234 240 252 247 260 311 309 295 293 293 294 228 232 210 202 193 201 215 202 212 62 205 196 201 200 197 195 188 202
172 185 180 193 202 194 199 211 203 205 221 219 226 215 235 240 237 246 254 262 287 303 299 292 282 290 270 271 240 235 222 227 208 211 223 221 209 193 203 190 188 77 204 202 200
195 191 196 197 204 197 202 209 204 226 215 219 217 231 235 235 248 264 265 280 310 304 287 281 291 261 272 267 272 280 229 216 222 216 214 219 217 211 204 195 193 189 189 164 180
180 199 192 213 194 204 208 210 217 214 222 227 230 234 235 239 247 244 259 296 299 296 297 291 281 276 262 262 260 268 270 221 225 228 224 225 224 207 208 207 193 194 194 191 187
196 199 201 211 208 204 214 219 221 219 223 214 231 232 242 232 231 248 274 300 297 307 302 309 309 288 273 260 261 256 260 251 229 240 220 219 226 217 218 209 213 205 210 209 209
199 212 208 209 216 208 214 218 219 223 227 224 238 236 237 265 246 266 287 330 328 310 300 324 302 307 311 282 260 264 263 263 242 243 225 231 219 211 218 216 211 221 219 218 223
208 215 213 171 207 218 213 219 220 226 240 243 235 236 237 242 266 285 309 302 288 282 288 232 285 300 315 332 283 258 252 263 261 254 245 217 222 213 216 212 210 209 204 210 215
209 213 208 219 224 225 228 223 222 228 242 234 236 233 254 259 275 309 301 283 305 349 439 468 527 419 193 291 336 183 268 257 255 265 256 202 233 209 211 217 210 216 210 174 213
226 235 234 229 233 229 231 239 227 232 216 242 242 231 260 264 294 299 288 301 342 417 426 439 452 432 448 489 327 324 296 276 263 262 242 254 241 227 215 218 217 212 212 128 216
228 237 228 235 236 244 247 231 229 228 239 253 221 254 260 274 304 285 291 329 351 412 410 426 390 394 375 468 484 299 309 303 277 263 252 246 86 245 230 225 220 216 218 222 218
227 226 233 216 248 229 242 219 218 234 222 233 255 260 259 297 273 280 305 337 365 394 371 381 366 236 367 419 302 279 317 295 79 271 264 253 240 239 196 249 239 84 213 219 230
203 200 213 217 247 220 229 208 221 217 221 231 259 260 275 294 275 291 322 389 418 358 365 351 346 339 326 327 354 442 459 269 176 293 227 266 246 233 230 238 239 239 238 232 229
205 199 203 234 197 222 199 222 221 218 247 249 252 265 285 281 284 304 313 371 390 358 353 323 328 321 307 304 336 364 433 397 309 279 297 272 271 251 247 248 242 246 245 240 95
218 202 216 205 220 208 227 222 232 251 249 256 254 267 290 278 296 304 372 362 377 343 340 318 317 328 327 312 301 332 388 402 351 295 287 281 263 260 265 265 254 248 244 247 239
221 214 214 225 206 228 228 233 239 251 254 253 260 272 281 279 301 310 368 376 356 342 343 316 313 309 310 313 301 327 348 381 385 323 284 284 275 251 274 260 260 210 253 254 247
225 224 228 226 237 229 241 244 242 248 251 261 264 275 274 293 297 312 358 372 355 334 338 310 306 304 298 292 229 288 321 333 365 338 307 287 270 266 274 266 222 254 245 246 246
229 228 231 243 249 236 251 247 250 253 258 258 257 275 274 289 307 346 347 401 358 336 317 327 304 305 316 303 216 299 300 298 312 345 305 311 290 280 278 264 262 250 243 237 251
237 230 241 245 243 252 256 249 252 259 255 261 263 270 294 288 318 357 325 435 359 343 298 307 317 320 324 305 307 288 283 235 150 303 351 363 324 302 270 272 232 262 248 240 239

GFSSW_2pvu_pres_120.txt.gz
Presure
191 136 175 186 180 152 184 128 188 164 174 188 184 162 189 153 201 193 192 194 168 118 172 234 199 205 221 209 224 204 169 185 214 222 210 211 184 161 167 221 220 162 180 218 216
180 124 143 183 184 171 164 182 193 169 191 192 135 148 202 171 197 193 208 210 136 157 203 183 200 185 205 228 209 205 179 193 209 148 129 201 193 227 233 202 223 182 165 205 206
182 137 194 184 133 154 175 193 187 175 184 113 194 136 202 186 199 204 206 182 148 222 199 177 167 179 201 152 200 213 199 207 208 209 217 199 212 187 207 205 205 126 130 206 213
197 163 165 177 179 190 174 150 180 190 190 185 126 196 160 151 154 146 109 216 206 212 215 172 130 200 196 117 146 161 215 211 153 141 197 126 207 214 211 177 209 156 203 201 206
171 148 162 169 174 175 164 168 185 186 184 194 199 200 167 205 209 208 206 207 210 213 179 200 221 200 161 193 207 247 242 200 223 185 201 205 188 181 194 187 201 200 198 198 200
176 161 198 145 180 174 176 176 174 186 176 179 197 192 178 209 213 209 207 205 210 193 221 214 240 204 221 148 165 179 185 250 211 173 215 197 198 191 195 196 125 67 162 202 179
174 172 149 195 174 144 194 194 158 146 186 168 174 188 195 201 205 206 203 206 212 221 218 230 243 238 141 154 166 194 234 175 255 210 202 183 216 216 196 181 190 202 180 194 198
168 172 172 196 185 192 198 194 196 184 187 194 201 199 200 198 196 210 204 204 209 229 234 234 259 249 249 277 297 278 284 283 255 249 217 191 217 150 83 193 200 189 210 179 190
136 158 144 194 195 180 180 199 174 181 195 201 197 207 198 203 202 200 203 207 233 223 235 256 263 281 285 277 321 334 294 265 257 221 215 216 173 194 209 195 211 211 183 204 194
167 165 180 196 186 185 184 198 197 188 192 191 193 189 199 201 200 204 211 224 227 232 235 257 268 267 270 325 328 302 314 321 261 261 251 228 196 195 184 205 210 188 185 189 173
190 187 195 196 195 190 196 195 192 189 190 198 195 197 201 211 212 223 230 234 238 227 258 260 266 280 288 331 330 297 282 308 297 314 248 245 238 233 218 217 165 191 206 204 200
195 167 195 195 187 200 195 195 203 199 203 206 206 194 202 213 224 223 236 238 238 260 259 258 265 276 294 323 330 302 279 285 289 285 243 239 240 231 223 206 203 199 179 196 206
208 193 193 196 194 193 172 199 201 197 205 200 201 206 205 222 228 230 231 236 246 252 254 246 272 270 309 324 326 316 288 279 281 277 273 274 265 236 231 214 198 189 201 195 195
143 193 195 209 206 197 199 212 207 194 205 209 223 230 232 232 234 234 228 240 242 248 253 273 271 325 320 269 330 342 299 278 280 229 267 264 243 235 218 221 208 200 202 209 199
216 204 208 245 233 221 222 207 212 211 217 216 227 228 222 222 236 246 250 240 253 250 269 274 328 318 314 315 302 319 362 294 275 279 265 280 76 221 215 217 211 205 199 200 214
218 217 218 216 230 225 234 230 226 232 223 227 249 240 247 251 252 246 240 247 243 250 289 297 311 333 406 425 399 334 310 364 286 268 279 267 265 255 259 224 227 212 208 206 208
196 210 204 223 242 193 218 226 220 230 228 238 242 231 261 238 249 230 243 229 232 280 285 320 346 483 489 469 471 491 241 307 349 281 279 71 176 252 245 235 228 231 221 217 209
236 204 222 192 208 210 211 224 234 231 228 238 227 246 236 235 229 226 230 229 266 280 318 354 489 416 402 409 427 427 477 418 297 343 282 265 263 122 124 238 233 230 234 231 209
212 197 213 195 197 198 214 223 239 219 209 213 217 227 227 231 207 227 230 269 273 276 336 354 443 412 387 381 382 409 442 467 345 287 336 261 269 96 151 231 232 236 237 225 220
205 198 200 215 203 200 212 231 225 217 205 204 207 232 230 224 221 237 267 268 270 314 335 375 419 361 332 342 303 366 399 418 435 328 311 80 261 253 250 238 235 244 237 237 220
207 197 204 219 206 206 213 214 228 214 195 203 210 210 226 234 238 250 266 258 304 312 328 429 391 334 326 315 87 345 253 370 398 438 279 235 261 243 246 240 240 236 236 220 228
215 189 204 206 207 210 217 223 223 208 219 213 211 220 248 238 263 257 265 263 294 311 409 405 373 329 101 306 310 320 337 353 399 417 284 197 84 245 246 249 256 259 243 232 240
208 202 205 212 214 217 222 233 224 216 217 208 230 247 260 249 268 263 257 285 300 309 372 353 351 323 315 303 300 301 316 329 422 385 370 278 301 280 248 243 248 245 243 245 249
213 208 215 218 220 225 222 242 233 218 223 236 234 251 262 268 264 257 275 287 304 244 376 360 365 344 311 301 252 295 314 319 397 377 373 332 273 289 271 244 222 229 221 219 216
214 215 218 221 223 223 239 235 238 231 235 235 241 254 259 263 259 263 272 290 332 346 370 353 367 319 330 291 280 294 307 304 345 379 355 381 283 270 291 276 220 199 285 186 209
229 228 232 235 237 239 233 219 234 234 240 241 256 270 262 260 267 262 279 305 378 354 362 344 359 319 298 294 278 288 283 288 311 347 319 343 357 278 293 273 246 219 318 247 239
226 224 245 231 232 236 239 242 239 236 265 252 260 262 259 265 264 264 287 317 368 340 371 331 325 315 306 282 275 153 271 264 275 308 346 319 338 274 276 233 227 205 209 240 243

GFSSW_2pvu_pres_123.txt.gz
Presure
145 146 166 145 176 154 189 187 146 176 184 191 198 186 179 204 174 164 203 196 202 172 197 203 188 206 149 197 211 243 214 225 214 222 207 226 221 163 143 173 154 209 159 186 227
118 146 129 159 162 192 155 152 187 186 178 173 190 183 199 204 188 200 176 133 187 170 162 186 200 195 185 162 211 200 228 221 216 199 216 194 208 215 210 188 158 167 171 159 137
177 128 183 145 132 182 189 176 185 181 172 193 172 200 187 187 191 161 202 196 153 214 134 212 165 173 183 211 186 218 220 183 215 164 256 216 230 217 223 203 205 212 213 223 220
181 151 189 170 131 170 162 131 187 163 175 197 183 184 141 198 173 147 160 168 151 147 180 212 194 164 178 205 147 173 227 178 225 253 240 257 162 138 200 203 225 200 210 210 206
124 177 167 118 182 153 187 179 172 163 184 184 176 193 194 197 191 169 148 205 187 169 172 209 207 211 209 181 212 186 212 243 196 199 185 225 224 215 214 215 189 136 196 200 87
147 133 158 140 181 178 179 159 165 182 169 155 203 198 196 197 198 179 194 197 210 198 203 198 201 188 207 208 216 219 238 251 230 242 186 194 232 173 217 204 214 200 219 130 136
164 170 174 127 183 163 174 130 142 172 179 197 207 166 188 196 211 177 195 193 194 190 187 195 198 204 206 218 221 227 235 245 180 282 253 254 202 257 191 221 228 217 201 152 200
178 177 172 177 164 203 168 179 152 164 186 187 208 161 202 190 194 196 194 174 193 194 196 192 201 211 212 220 230 234 246 253 282 278 290 268 279 162 281 216 191 188 222 202 174
175 174 177 162 151 177 167 144 171 201 191 200 206 206 199 197 204 201 203 203 205 201 198 201 206 217 223 235 255 243 281 282 282 278 277 328 327 302 276 247 233 218 216 223 213
165 182 174 175 171 183 204 194 201 197 194 195 203 194 200 202 202 205 201 202 200 202 212 216 220 220 248 260 266 277 277 285 287 325 323 324 341 361 284 254 250 228 217 216 229
173 144 170 163 202 163 135 168 198 189 192 197 195 198 198 198 202 203 206 203 202 208 205 212 243 245 256 272 288 264 291 273 311 306 338 320 314 338 287 267 253 250 215 214 207
149 187 162 160 154 184 144 150 197 196 190 161 197 199 205 205 205 208 209 204 209 216 218 235 260 280 284 266 270 273 266 304 312 345 334 318 303 328 264 278 254 251 225 218 106
191 181 167 152 180 222 181 216 202 182 179 194 200 204 210 214 218 213 207 215 220 224 260 251 268 267 260 241 250 253 291 300 341 347 356 329 306 196 304 307 259 257 242 224 206
167 185 178 124 233 223 191 203 217 190 208 201 211 225 235 238 230 247 252 244 230 249 251 260 259 253 227 241 241 275 296 309 315 307 344 229 134 301 292 293 254 258 246 230 210
205 189 216 218 216 210 223 225 220 213 206 221 210 218 250 244 226 233 244 234 251 238 223 240 242 218 241 248 302 302 370 432 432 378 346 333 67 288 279 279 259 245 245 228 213
189 187 192 196 200 215 214 217 217 218 227 214 231 225 218 215 220 237 233 245 214 224 236 244 237 237 258 299 337 465 172 467 503 479 380 325 365 286 279 271 270 276 241 235 224
183 204 208 193 206 209 214 207 186 193 208 234 226 201 212 217 209 243 239 226 215 218 226 209 241 277 280 303 398 432 405 417 430 448 515 372 327 287 267 267 256 262 271 240 232
207 199 203 202 207 210 210 214 195 209 210 201 214 224 221 208 220 228 226 199 218 229 226 247 266 280 280 446 397 375 381 390 384 405 463 469 159 278 237 254 251 247 255 224 262
205 200 204 208 204 202 205 209 214 205 202 208 198 226 194 204 217 222 227 219 222 230 249 296 283 284 319 363 361 364 363 349 394 424 443 476 294 287 147 229 254 268 250 233 266
202 200 199 222 199 197 201 196 211 204 212 224 202 220 211 217 221 225 235 231 235 240 265 294 279 287 374 349 335 343 333 336 111 377 445 382 320 277 187 258 98 186 256 256 253
200 193 195 205 197 209 198 197 218 202 208 220 204 207 213 217 223 238 242 231 235 255 280 289 267 337 358 343 327 327 321 324 274 345 313 443 258 331 258 139 257 263 253 251 249
203 205 203 201 197 200 199 198 212 197 206 215 216 215 216 221 229 245 248 240 256 295 284 141 322 414 355 333 325 315 308 328 323 332 381 266 300 309 260 253 254 262 261 226 234
208 211 206 202 199 206 198 208 211 207 206 210 217 217 220 230 236 236 230 246 271 284 274 279 324 383 335 323 312 308 298 299 323 353 381 395 290 97 284 256 237 358 240 227 218
213 209 214 202 206 201 206 208 211 217 212 219 222 227 229 242 246 245 254 255 274 278 276 301 392 416 336 313 145 306 299 305 329 352 385 355 301 252 302 257 260 226 185 244 226
227 254 220 213 207 209 209 215 215 218 221 227 222 227 242 236 251 251 253 279 281 261 286 302 417 396 341 306 303 288 286 299 320 333 356 297 307 276 297 267 247 244 212 231 225
253 242 245 223 225 220 211 220 224 223 226 235 238 242 242 256 241 255 274 280 264 280 291 329 372 388 359 291 296 291 293 284 280 313 357 350 311 340 267 298 242 235 208 215 230
245 245 247 249 249 241 234 237 232 238 250 247 243 240 264 238 246 269 283 270 271 276 294 376 403 376 330 292 281 281 276 277 240 228 316 324 312 324 253 289 262 227 225 216 208

GFSSW_2pvu_pres_126.txt.gz
Presure
132 127 157 132 194 192 90 115 177 173 193 185 184 166 180 178 188 193 186 198 193 189 182 187 199 221 191 206 173 215 226 212 230 231 206 238 202 125 218 235 232 225 181 252 245
165 195 184 126 146 144 189 191 175 127 189 185 183 183 180 179 178 192 197 183 184 186 187 158 193 208 184 222 183 222 194 189 184 200 224 229 230 212 237 212 189 193 193 237 245
201 192 180 177 179 185 188 124 172 140 177 135 179 166 191 172 141 201 195 197 204 197 186 195 199 199 210 165 217 224 218 159 178 227 211 186 206 222 165 257 228 204 229 226 237
180 195 161 173 158 158 182 179 178 174 138 184 186 180 174 184 190 174 202 197 182 199 206 197 196 193 196 215 211 205 216 199 153 217 220 168 212 184 199 188 223 259 216 221 212
189 175 191 179 172 150 138 182 179 122 182 185 157 180 175 165 171 190 193 204 162 198 208 190 197 205 205 205 211 208 207 207 201 210 208 166 224 178 193 189 187 111 245 258 219
186 184 172 135 177 178 158 117 161 173 182 187 195 141 178 148 173 165 176 182 196 171 191 190 193 200 150 206 208 204 192 202 204 213 223 216 220 234 209 160 218 179 221 223 237
173 191 174 175 179 172 179 173 168 157 180 193 191 179 141 171 174 202 203 197 203 208 213 214 207 206 208 200 208 211 210 218 205 216 223 222 271 267 253 257 261 256 233 201 172
179 188 183 169 184 182 170 177 169 165 196 179 182 179 191 213 191 213 200 201 201 203 202 200 203 201 201 203 210 213 211 214 211 218 233 260 267 287 274 280 277 278 276 262 196
192 190 215 196 189 168 159 153 186 176 144 164 184 172 171 190 183 202 205 197 200 202 203 203 202 205 210 212 214 222 223 232 173 265 278 283 288 300 275 285 283 276 288 272 261
197 195 212 213 194 122 155 180 186 187 190 183 173 168 175 210 211 204 203 196 196 197 201 206 206 208 213 217 219 233 253 226 288 136 282 281 269 285 267 266 300 286 279 285 264
192 187 190 121 213 195 182 191 184 176 187 184 158 211 192 209 163 202 195 198 199 202 207 205 213 226 252 255 249 259 266 267 270 59 84 250 256 254 262 305 297 369 365 294 274
175 195 154 162 159 213 191 198 172 207 175 166 179 173 197 202 197 191 203 200 206 202 202 240 249 242 225 245 255 235 253 255 271 259 242 154 295 330 316 320 329 351 344 321 289
186 198 178 196 166 195 138 196 195 188 181 183 195 203 210 207 200 200 199 206 217 223 219 210 216 210 252 247 252 220 233 237 254 247 287 307 324 324 331 326 341 345 328 325 289
151 197 193 204 204 197 196 219 212 181 201 193 207 227 229 203 197 212 214 224 206 235 226 205 225 226 215 238 244 223 228 243 320 329 329 325 316 541 357 331 329 338 305 314 347
186 170 195 214 201 164 200 225 203 180 156 207 228 224 225 231 212 220 220 198 230 221 210 211 185 220 227 232 246 234 251 326 320 324 443 480 441 533 579 410 311 334 285 301 333
214 190 215 201 224 200 203 211 218 172 217 216 197 201 190 209 218 215 214 202 208 213 232 215 211 230 230 254 262 252 321 166 398 404 429 234 415 72 77 380 334 289 284 295 318
205 212 206 203 203 208 216 209 195 176 204 179 193 206 226 213 217 207 223 217 214 219 177 210 182 233 244 253 257 311 313 383 389 379 380 430 439 474 220 322 305 286 304 297 299
202 210 229 217 208 213 219 207 213 214 210 218 210 208 215 208 217 212 225 210 219 224 230 217 215 240 251 248 286 286 380 366 381 360 376 386 453 86 313 349 287 285 289 290 292
198 230 234 237 216 218 215 211 211 214 214 215 205 208 214 206 212 212 207 208 215 222 223 227 164 248 276 294 196 337 363 366 354 344 352 386 210 466 268 302 288 287 283 289 287
246 196 244 223 209 211 208 222 206 210 206 211 207 201 210 221 219 207 220 218 217 221 226 233 196 233 290 306 119 259 347 342 350 348 381 377 454 283 314 310 283 271 290 243 241
251 240 243 221 210 211 208 212 213 205 204 211 202 202 209 210 203 212 219 227 222 227 234 238 262 272 301 291 280 269 332 330 157 345 363 330 380 301 309 313 280 205 273 222 229
246 244 235 233 221 223 215 212 211 213 211 198 202 204 209 212 234 232 218 225 232 228 235 248 263 292 284 283 362 343 330 311 248 342 366 344 340 288 307 314 262 85 255 241 210
260 244 235 237 224 232 205 218 210 205 208 211 206 209 210 213 207 219 220 227 227 232 248 265 273 300 275 343 368 334 312 322 335 349 335 339 332 275 304 320 152 243 254 237 234
237 251 235 228 233 224 217 205 213 213 209 207 208 210 208 214 218 215 225 228 232 239 281 274 297 282 306 382 338 321 312 315 234 333 324 329 319 270 308 337 261 223 229 236 237
239 243 228 226 234 217 214 209 227 214 210 204 202 211 212 214 217 219 234 230 240 266 271 297 289 268 303 243 334 303 295 301 307 338 312 314 304 272 311 284 248 227 220 233 223
254 238 241 229 226 227 227 220 218 228 213 217 208 215 210 234 235 234 230 245 269 263 265 291 264 293 312 394 325 302 291 290 295 325 315 297 311 289 279 284 243 225 225 231 225
257 259 256 218 229 229 218 221 227 218 217 212 215 231 253 256 255 258 261 262 259 264 286 269 266 302 393 371 316 302 301 293 296 304 329 313 304 291 256 279 243 230 239 235 239

GFSSW_2pvu_pres_132.txt.gz
Presure
183 170 171 195 204 186 194 187 179 176 200 184 169 186 132 216 198 123 194 182 187 108 89 146 187 196 190 132 172 191 189 211 191 192 162 193 189 191 216 215 208 210 208 192 244
171 197 201 204 210 178 205 186 193 159 205 192 184 127 145 131 161 139 159 176 187 193 159 188 184 192 178 180 187 191 194 192 192 203 215 212 193 193 189 173 220 199 205 236 226
158 175 210 208 186 199 174 203 196 184 206 125 183 186 112 175 182 184 177 163 139 159 192 191 141 128 192 190 186 185 184 205 208 214 179 185 203 196 190 191 194 189 199 156 206
170 200 214 197 183 196 194 180 185 201 183 207 165 180 177 178 128 134 191 127 184 152 183 168 193 187 177 178 181 178 179 192 215 166 219 222 218 207 219 195 212 213 196 232 238
204 184 218 189 173 186 195 188 180 171 191 193 184 160 179 183 166 142 182 185 192 174 170 185 162 185 188 169 170 171 184 200 224 218 211 212 210 213 201 182 207 214 202 219 175
187 208 185 187 160 195 196 163 189 183 186 198 189 188 193 172 162 162 176 169 123 154 190 184 164 167 152 183 173 171 183 166 223 165 220 219 214 210 215 219 224 217 212 218 226
149 193 192 164 153 219 170 169 202 181 171 178 145 194 184 125 138 192 137 184 170 181 177 195 170 186 177 144 165 187 192 188 250 235 227 218 219 208 209 210 211 212 232 246 247
204 217 189 169 194 188 185 195 169 179 184 184 172 187 185 195 199 137 134 150 177 164 112 190 166 168 129 182 187 147 187 236 221 215 209 224 167 205 215 230 249 241 212 215 220
171 157 159 200 201 188 169 202 193 174 187 174 153 183 179 202 179 158 202 125 207 205 169 195 190 187 154 199 169 179 227 206 214 211 221 215 154 200 243 234 236 242 226 217 236
175 163 190 186 191 139 198 204 193 185 177 181 188 189 136 175 219 212 186 211 204 171 212 201 186 195 207 177 204 193 212 215 213 217 214 215 236 203 202 221 240 232 235 238 210
195 172 195 195 173 214 188 169 160 176 142 187 195 180 130 124 225 203 205 200 212 213 205 208 211 211 218 209 208 217 218 217 220 222 210 206 63 236 210 72 234 221 228 211 224
185 153 162 202 180 195 173 162 161 177 177 187 189 173 152 141 198 196 205 195 187 198 199 201 180 211 220 216 203 217 220 234 249 230 227 212 222 224 221 230 236 256 203 372 359
197 180 202 193 184 169 196 159 191 192 186 188 160 198 184 179 175 173 180 198 191 199 217 209 214 199 208 208 208 220 231 219 203 217 237 236 231 145 240 249 67 351 376 217 420
197 217 174 212 192 190 178 143 185 172 148 185 188 156 216 130 180 203 164 212 208 213 246 153 203 159 230 223 222 235 211 241 232 239 227 138 198 111 145 144 131 144 321 74 442
240 228 228 192 170 199 178 202 200 166 197 201 183 209 190 204 214 220 209 193 207 185 209 229 156 168 230 223 178 227 222 233 233 229 226 148 205 272 343 95 334 407 404 431 566
230 236 166 201 210 197 179 196 158 192 162 174 174 179 204 204 204 227 213 216 217 210 218 235 223 176 237 233 224 228 235 230 225 232 252 245 178 339 240 419 206 117 358 403 491
226 229 220 191 229 192 194 172 201 202 207 216 195 206 217 197 209 186 218 223 202 213 231 223 225 220 225 228 220 230 224 235 237 257 243 237 298 374 198 392 255 89 146 201 347
238 180 219 171 175 201 204 209 212 195 202 209 200 210 216 204 192 219 224 224 223 223 224 226 219 218 227 229 225 228 242 254 243 135 252 140 253 383 393 419 368 356 341 336 346
169 234 205 221 216 214 209 219 220 227 235 218 198 214 227 207 216 201 218 212 214 209 229 217 224 236 234 232 234 230 224 237 237 248 251 267 387 399 416 374 335 344 193 317 297
237 218 198 157 215 226 217 232 206 148 189 237 223 231 225 215 231 237 208 203 222 206 226 216 215 213 245 204 224 228 238 211 240 254 265 343 380 433 386 350 330 309 325 326 334
231 227 236 219 222 207 224 164 199 237 224 246 241 212 233 235 239 233 206 212 230 233 223 219 221 218 233 216 203 219 230 232 236 261 322 219 231 409 349 309 317 326 283 278 272
241 242 236 188 233 231 222 231 229 241 236 234 222 240 241 243 226 219 215 225 230 223 222 223 218 229 233 223 215 230 232 227 254 315 307 94 106 394 85 295 290 268 265 252 260
266 256 260 243 250 247 247 236 252 245 241 205 243 258 260 197 231 222 218 218 208 227 223 218 218 219 212 224 222 238 83 241 304 320 317 63 308 66 302 305 258 268 253 256 253
279 264 255 248 239 234 239 241 247 246 220 231 244 215 214 231 232 226 227 226 218 220 228 220 218 219 214 221 224 227 230 246 305 305 371 348 385 349 297 304 249 250 244 244 252
264 276 260 246 239 249 246 239 232 239 228 266 260 255 221 245 241 237 226 228 225 225 219 226 231 232 237 234 234 237 242 308 301 290 366 333 376 317 288 302 249 254 228 246 232
251 275 259 255 249 249 235 240 231 219 228 263 257 228 241 249 252 247 239 239 236 228 230 227 228 225 222 227 233 262 270 294 279 364 348 355 363 308 288 294 247 241 233 229 234
254 258 259 256 248 264 247 233 230 222 247 232 229 233 227 241 236 244 248 246 234 229 225 220 229 223 230 264 260 255 284 286 271 356 341 329 356 302 300 292 252 240 242 244 234

GFSSW_2pvu_pres_135.txt.gz
Presure
175 199 145 191 185 178 188 195 203 198 188 191 202 190 149 133 191 113 118 177 155 197 136 117 182 181 91 175 180 175 172 178 173 188 93 198 190 195 193 195 211 212 207 208 199
188 180 185 159 184 181 163 193 206 203 192 199 198 181 194 126 188 149 147 173 142 167 189 168 190 183 198 193 190 168 158 194 192 190 190 193 187 189 186 204 213 196 205 206 220
177 184 183 181 171 177 181 207 199 199 198 185 185 199 203 206 145 182 116 125 178 162 115 160 180 184 121 187 188 183 184 188 188 180 186 189 189 185 185 199 141 209 206 221 225
178 189 173 157 184 171 174 187 214 200 187 200 194 194 192 200 195 184 185 175 170 181 176 182 170 167 174 181 157 177 152 186 136 177 177 174 179 178 174 197 224 216 207 211 214
163 180 174 180 180 176 182 132 172 178 201 193 179 192 186 165 190 188 100 182 140 176 143 155 179 131 183 171 173 188 186 180 166 189 184 171 168 173 175 184 202 227 231 218 207
173 183 170 159 178 192 199 186 163 143 192 189 170 178 176 194 188 183 180 175 164 174 155 174 161 179 136 188 180 192 180 177 172 154 127 186 174 170 172 184 175 231 220 205 224
150 174 164 151 171 195 168 204 180 163 190 195 173 196 183 181 176 198 181 186 170 171 181 223 188 163 189 188 173 188 179 188 190 185 202 186 199 139 221 184 230 220 221 221 210
176 180 132 167 197 198 161 185 183 160 187 194 184 211 190 174 174 186 164 188 181 182 199 210 167 204 131 199 177 177 149 194 190 190 197 204 180 142 192 232 228 223 217 207 209
133 215 163 211 135 181 165 138 177 174 167 179 187 165 213 194 194 162 158 169 186 190 200 225 202 211 201 209 212 166 205 205 203 195 172 226 158 219 175 221 222 218 220 216 214
199 140 179 196 184 178 208 191 186 184 148 166 182 180 192 178 172 169 199 175 194 192 187 193 222 207 199 208 219 155 210 210 208 207 191 209 214 200 224 232 232 228 226 231 221
179 191 182 128 200 140 132 163 144 144 166 179 196 197 172 202 179 179 171 196 180 179 129 199 194 189 210 213 194 207 209 204 207 198 205 219 204 206 217 232 244 202 198 225 225
187 204 142 220 190 187 196 184 206 133 209 185 164 200 153 188 181 147 172 178 175 188 186 137 203 209 205 208 200 198 211 214 218 222 219 229 220 174 134 165 114 175 214 255 221
179 196 190 187 206 200 194 151 180 196 152 193 177 175 177 173 159 151 155 180 206 196 195 207 188 199 208 213 208 236 216 229 223 218 223 232 217 242 233 181 224 155 126 152 132
195 228 214 186 213 177 207 194 175 186 187 195 182 196 192 175 197 180 141 185 168 173 196 213 172 201 195 218 205 208 218 175 225 218 240 246 245 238 232 198 120 248 273 430 459
190 194 218 197 201 197 186 206 203 196 200 176 191 154 166 191 162 208 169 199 191 197 147 217 210 196 236 234 211 227 218 173 239 234 241 243 252 101 99 188 80 269 466 317 87
224 206 235 212 229 231 193 217 199 206 197 199 170 205 198 167 156 167 198 228 212 156 179 227 217 206 196 241 160 248 245 248 179 205 245 227 236 249 263 272 288 463 388 178 85
221 225 191 225 212 200 214 221 220 222 218 199 166 208 150 196 173 206 206 194 208 210 205 216 223 194 233 245 129 224 228 232 234 229 214 233 239 264 264 259 292 222 203 307 347
237 227 162 235 221 204 207 172 220 182 175 221 176 226 220 220 199 204 192 186 207 216 190 215 232 215 243 238 217 232 225 245 228 235 234 247 255 243 249 275 444 380 365 211 338
249 230 242 221 233 220 209 215 198 179 220 214 225 161 201 186 156 213 193 223 204 236 248 206 234 222 235 232 219 230 227 233 231 239 239 239 238 258 263 357 393 352 325 323 326
261 236 243 239 229 223 218 221 213 191 182 211 223 185 169 214 221 166 215 240 185 216 246 234 224 245 242 237 220 235 232 231 240 235 225 240 257 263 228 284 371 330 310 300 303
271 255 252 241 237 227 233 220 205 214 212 212 211 184 216 197 199 238 182 234 232 238 238 220 231 244 240 226 234 218 238 191 233 250 244 175 245 218 393 384 323 291 280 280 277
331 322 277 269 243 238 236 221 230 199 179 207 203 205 158 124 221 242 228 244 214 233 234 233 239 237 230 226 239 221 228 225 227 233 101 253 262 82 176 218 246 278 275 265 271
296 304 334 385 293 259 230 231 224 218 181 214 191 219 229 219 231 244 225 225 245 208 242 249 198 209 230 230 231 226 232 234 121 249 240 247 309 305 344 334 273 264 262 270 255
349 367 346 374 321 271 242 234 202 204 238 229 220 217 226 219 233 217 212 246 240 217 241 214 209 241 234 231 227 226 234 238 242 240 248 276 323 187 397 200 273 260 264 257 171
350 356 352 347 305 252 230 235 235 240 227 224 201 218 219 224 230 234 244 253 217 241 253 247 244 245 241 242 237 238 237 237 243 259 264 297 311 381 388 319 272 250 254 262 259
313 310 293 274 288 258 249 237 238 226 218 216 221 227 219 228 252 245 248 214 252 255 253 246 243 242 243 245 255 253 245 250 246 261 261 292 285 380 383 299 251 262 239 256 251
285 278 265 266 275 246 231 218 233 227 215 217 228 228 242 237 252 252 210 219 237 237 231 229 230 235 240 234 241 238 235 247 255 269 265 292 274 372 385 296 260 244 254 233 248

GFSSW_2pvu_pres_141.txt.gz
Presure
184 178 135 169 206 157 136 117 196 198 150 175 137 172 168 157 185 173 189 199 193 162 195 141 204 197 143 121 201 207 142 160 134 122 173 193 175 198 179 200 195 199 202 200 198
175 177 130 137 193 173 153 139 179 187 174 148 169 178 144 170 147 181 170 198 196 196 188 130 186 202 193 174 195 159 161 139 120 156 192 187 139 136 189 191 195 191 187 189 190
173 176 172 141 182 106 172 178 183 186 171 183 161 177 179 159 174 176 184 199 197 197 190 192 149 205 192 186 187 189 194 124 190 187 183 143 184 142 148 175 163 186 140 171 190
159 184 145 175 175 176 177 164 169 182 154 178 184 183 163 129 158 184 173 182 197 195 198 167 196 212 136 186 106 189 182 138 143 184 181 148 181 187 183 184 140 182 188 189 150
152 174 171 111 161 168 174 181 169 175 172 162 175 163 165 174 157 177 159 185 170 194 183 186 181 194 195 175 184 182 162 179 183 173 179 180 172 194 193 187 180 151 185 164 188
163 175 182 179 156 169 165 142 176 176 173 173 171 172 155 176 164 161 146 193 200 181 199 190 179 178 190 189 177 165 181 175 155 168 159 177 162 160 176 182 202 193 168 190 187
164 162 172 183 194 199 176 177 176 181 155 152 173 183 184 156 175 162 151 193 172 157 187 198 169 181 180 183 190 180 179 172 175 172 169 180 150 186 208 218 206 204 208 211 206
182 180 181 185 162 196 193 189 182 180 185 174 167 169 180 138 193 155 162 153 173 176 200 156 187 172 182 179 180 184 134 171 136 176 180 179 179 190 181 201 206 227 215 208 218
189 178 176 191 197 171 224 137 200 200 183 196 188 189 155 168 130 146 179 192 172 189 168 176 185 178 168 170 179 175 183 179 188 166 184 180 172 197 180 135 213 214 169 210 227
190 185 158 147 200 185 176 183 174 192 190 192 207 205 196 130 183 154 198 178 173 154 183 160 166 182 181 172 180 173 174 181 175 177 174 184 181 176 181 181 176 137 201 205 218
194 168 188 187 186 193 193 132 203 192 189 184 172 197 197 191 203 197 174 198 191 169 152 161 146 155 196 196 174 178 187 190 186 198 204 192 188 194 212 220 206 79 222 134 202
157 194 197 212 211 194 157 171 172 192 213 177 198 188 190 188 199 173 160 181 172 188 167 158 190 182 198 158 156 204 193 197 185 179 181 177 200 202 204 206 204 204 228 197 222
187 198 194 184 195 193 196 197 191 186 186 202 192 188 191 197 187 150 185 195 154 170 145 158 197 165 157 189 186 195 158 182 183 193 194 192 194 193 190 187 209 202 226 243 260
186 218 191 165 196 186 191 198 202 186 184 192 203 177 164 187 186 193 154 152 191 179 146 157 198 195 193 169 195 179 171 190 179 181 192 187 179 201 219 227 239 218 250 185 251
188 205 214 191 184 205 205 189 200 184 195 207 162 174 214 222 175 203 200 186 170 185 192 189 144 183 195 196 160 196 195 159 175 159 184 189 211 231 188 250 272 262 259 187 260
223 189 199 204 201 204 189 179 202 181 184 213 213 209 215 208 186 195 181 230 188 188 185 187 181 191 165 193 198 195 170 180 188 216 235 202 230 208 233 152 255 270 268 184 236
223 214 208 199 210 197 178 190 204 193 195 213 200 169 217 201 226 216 229 239 198 175 191 195 197 171 197 197 200 190 194 179 218 236 198 229 196 240 265 263 247 266 256 252 257
226 201 203 223 220 230 226 223 210 213 225 212 218 205 153 223 155 203 231 228 214 204 202 225 196 140 183 187 177 153 222 183 229 232 219 202 241 259 269 251 259 249 249 204 271
243 224 214 218 221 223 230 217 210 220 217 216 221 223 218 231 235 219 227 234 231 222 219 230 162 221 197 220 203 227 223 206 221 245 182 226 216 260 246 258 264 258 271 119 278
275 274 232 233 224 239 233 222 227 220 218 218 226 218 218 223 194 216 215 226 215 225 197 223 234 212 232 183 206 217 211 228 238 239 243 238 261 252 244 267 266 272 214 273 280
335 286 290 270 256 247 232 237 239 230 235 227 223 216 228 218 220 221 218 227 211 218 202 212 206 231 209 216 206 199 215 206 191 234 238 261 265 242 263 262 263 268 260 266 300
305 330 347 337 323 321 293 295 264 249 234 231 229 222 225 216 209 225 213 148 214 182 216 214 161 226 218 174 211 200 215 227 223 244 234 251 246 249 264 178 125 251 267 267 290
329 321 314 308 332 340 338 333 319 312 288 257 254 237 222 218 215 225 206 184 213 210 210 205 223 217 227 224 219 227 234 218 229 245 226 248 247 249 220 187 251 271 225 290 298
333 331 333 335 324 322 318 324 324 344 306 291 268 249 231 225 222 230 212 217 213 210 208 216 213 214 223 216 212 234 236 242 247 225 234 249 236 256 244 246 271 265 271 307 437
337 343 342 348 336 329 317 314 309 310 307 316 281 265 245 228 230 211 210 221 210 215 204 212 182 215 213 221 224 222 242 243 228 228 242 246 225 251 252 223 270 265 260 299 356
350 354 338 336 313 302 294 297 301 305 305 295 302 278 252 247 235 222 218 216 218 208 199 214 216 221 222 178 222 239 241 235 227 233 255 245 236 242 251 163 258 257 269 287 346
372 341 314 307 308 310 304 302 286 283 299 292 298 297 262 245 231 232 222 199 209 199 178 219 196 158 218 225 231 222 239 235 226 251 245 235 237 245 251 253 268 255 262 293 318

GFSSW_2pvu_pres_144.txt.gz
Presure
172 175 152 174 191 192 172 193 171 177 122 181 165 124 167 122 195 171 136 159 176 177 157 185 195 170 129 199 199 190 157 178 204 204 187 145 163 142 169 141 182 188 200 167 198
119 177 168 162 193 196 180 166 177 169 134 152 163 191 122 148 151 166 121 192 176 137 161 177 187 200 197 199 196 200 188 175 155 193 207 167 200 133 192 111 126 199 198 148 190
172 170 177 138 179 183 164 185 178 160 174 144 179 170 165 175 170 164 162 167 166 175 162 182 178 187 199 201 198 129 185 147 183 140 198 192 200 187 197 124 192 195 146 173 135
131 163 178 175 161 165 168 189 182 173 179 164 169 184 176 162 185 128 162 152 153 173 186 165 165 190 179 192 179 191 201 201 199 186 189 193 188 190 128 134 190 140 190 198 195
176 177 158 152 166 173 169 177 174 164 164 171 169 189 167 173 169 161 167 177 162 168 157 175 158 185 200 180 180 184 192 200 180 191 184 181 186 155 162 173 129 151 176 183 145
185 162 169 172 159 161 173 174 167 170 164 182 156 180 162 171 168 155 161 183 164 189 171 173 159 190 194 188 189 182 175 144 190 193 187 156 185 184 153 167 177 179 131 188 191
110 164 180 148 173 174 179 171 189 162 183 197 187 194 199 198 180 195 171 126 166 164 148 149 191 203 162 180 183 188 174 173 179 182 190 189 188 187 187 181 180 129 181 189 191
160 135 171 165 164 172 183 167 180 164 175 194 165 152 187 185 188 175 137 178 157 191 154 200 167 160 184 158 190 199 179 175 179 177 177 179 184 187 172 179 179 178 191 197 182
166 177 187 189 167 174 173 173 168 168 191 176 183 156 202 198 192 184 190 152 157 182 201 130 190 155 161 172 174 189 192 185 183 178 168 174 183 159 187 185 190 188 175 180 193
159 162 164 190 176 173 183 153 177 188 187 187 182 195 177 141 196 182 197 195 159 198 201 158 153 195 177 176 190 144 195 184 171 162 175 175 181 181 175 181 180 183 189 193 205
166 174 187 179 188 175 161 192 202 181 161 192 183 177 195 213 162 194 211 186 183 193 199 154 196 181 190 148 175 178 168 176 176 179 168 185 182 180 185 178 195 197 197 185 191
164 171 164 170 187 165 178 166 204 156 194 129 181 182 182 130 169 182 168 193 189 189 198 179 188 178 186 180 189 179 193 196 194 181 194 196 200 196 187 192 200 177 191 188 176
174 179 171 161 166 169 195 181 195 169 205 190 196 163 186 173 186 184 198 191 190 188 179 190 187 189 170 177 171 157 177 164 174 190 180 172 189 196 206 180 188 158 177 181 186
175 182 183 145 196 188 170 174 202 157 172 186 185 198 165 165 193 186 198 184 181 200 190 197 171 186 182 186 173 191 186 183 182 186 192 164 179 165 188 186 169 166 186 199 247
207 201 183 207 157 158 147 199 190 208 182 191 163 187 194 180 193 196 196 180 200 203 171 175 193 179 190 158 160 176 171 173 191 200 190 186 138 143 183 182 148 214 192 244 255
218 203 202 176 188 201 201 198 185 199 172 184 171 183 176 183 198 188 182 192 195 197 169 167 211 176 187 198 188 180 192 180 188 193 181 187 199 201 206 153 188 206 234 303 258
209 224 204 208 207 188 213 178 215 186 186 179 196 214 198 196 198 209 207 204 210 158 188 217 215 174 183 194 205 183 170 175 194 191 201 196 199 212 212 199 222 245 276 259 252
197 194 190 215 212 210 207 218 196 222 188 203 211 199 220 198 196 200 185 189 196 186 204 215 206 182 225 191 184 231 220 191 192 194 206 200 197 204 234 240 224 237 271 214 269
255 232 246 203 222 196 212 223 196 223 227 241 225 209 196 196 198 192 181 184 193 196 220 211 174 178 231 221 233 240 222 199 196 225 226 197 209 242 172 243 247 270 259 272 99
254 252 254 249 251 205 233 247 204 219 216 235 238 236 220 200 211 220 216 220 213 216 216 181 212 235 225 223 222 230 238 223 212 213 221 238 241 225 218 186 274 265 265 158 262
372 325 312 264 262 259 251 256 261 228 218 237 238 224 218 194 205 215 208 203 201 203 207 207 221 224 229 215 213 224 230 220 203 211 198 232 224 205 250 238 250 235 260 268 260
349 328 339 364 339 317 283 275 261 257 247 243 235 233 213 204 206 215 211 209 217 210 212 206 221 218 216 217 213 216 224 221 225 205 222 222 230 234 248 231 242 227 266 254 234
354 357 354 328 351 346 344 338 316 301 281 266 250 243 234 223 214 222 213 216 219 206 205 210 208 214 199 222 168 169 203 174 212 226 222 230 213 229 240 227 246 240 269 256 256
349 354 354 230 204 280 341 345 333 325 319 313 269 259 245 224 227 222 218 220 221 220 218 220 214 215 133 190 218 209 196 218 217 218 200 197 234 227 241 249 235 240 263 256 257
343 346 349 361 359 349 341 328 342 332 332 317 307 303 267 260 244 244 230 227 221 214 224 220 215 219 216 211 210 207 197 221 212 198 224 224 225 237 230 236 238 244 257 169 254
361 353 351 357 365 340 337 332 322 299 310 328 333 325 308 293 282 263 232 231 229 227 222 219 215 225 221 215 227 220 213 224 209 217 216 232 226 230 241 239 230 259 248 249 251
431 317 364 354 365 348 352 342 312 297 300 303 306 299 303 310 308 298 281 270 261 238 229 224 221 199 214 218 223 214 204 211 211 219 233 198 231 247 205 239 229 254 245 253 261

GFSSW_2pvu_pres_147.txt.gz
Presure
156 173 174 181 176 171 154 124 177 150 164 173 197 173 130 147 181 158 174 127 129 187 181 179 135 176 138 183 173 190 200 187 163 140 127 131 135 176 201 162 199 189 204 151 200
179 147 173 165 169 176 166 170 169 187 183 193 194 170 162 192 139 167 137 162 145 176 153 135 149 161 171 190 149 180 188 190 206 197 193 202 221 176 194 208 168 165 173 173 140
174 177 165 171 174 173 172 141 142 148 191 155 191 178 178 183 171 171 159 166 185 167 166 129 167 169 171 175 185 178 184 202 186 188 192 205 217 202 144 203 203 201 195 196 134
167 156 154 170 140 173 177 174 171 177 186 185 187 165 174 168 185 189 176 120 172 168 175 160 162 173 179 158 175 162 176 186 196 188 184 196 209 207 200 191 192 148 133 195 190
154 172 155 173 138 144 175 145 152 174 145 161 185 182 177 194 182 178 147 148 140 168 159 168 178 183 174 172 178 160 165 193 205 179 186 182 187 195 205 128 184 192 179 177 187
134 179 155 182 159 154 173 172 153 179 154 162 166 160 169 102 186 163 181 186 182 175 195 161 156 170 178 175 168 166 153 181 189 179 192 186 184 184 191 195 201 194 168 190 192
135 161 143 155 166 171 152 153 146 149 151 166 162 165 180 174 182 184 199 201 195 164 197 162 201 164 196 170 187 167 158 169 161 188 185 198 186 184 182 185 166 181 185 187 192
149 152 149 172 172 149 153 167 165 141 121 174 170 153 181 190 190 171 191 166 181 191 192 165 182 189 178 170 187 153 172 172 145 175 165 173 163 179 179 178 184 183 181 186 184
171 173 164 142 159 161 175 162 158 171 166 152 185 180 180 176 178 182 177 190 158 191 200 193 184 185 189 184 199 169 183 178 172 183 174 175 193 192 186 180 182 181 183 185 181
167 166 170 179 161 155 176 177 158 179 163 173 187 179 170 189 169 197 180 167 199 177 207 193 214 198 198 193 145 202 184 195 142 158 177 183 184 192 190 183 160 172 170 181 183
164 183 174 162 179 177 155 161 125 169 134 157 167 176 192 140 171 174 158 191 178 181 181 164 197 196 184 182 185 118 196 197 160 195 181 184 165 177 186 190 194 179 190 195 190
178 181 179 187 179 177 181 176 164 181 177 174 162 172 158 167 182 192 189 192 198 197 189 174 172 169 186 192 188 185 195 180 195 185 189 199 182 172 169 172 185 187 189 191 211
164 170 170 178 179 165 173 183 154 177 168 188 162 153 171 181 184 186 192 142 194 192 195 197 181 206 195 186 190 179 183 184 191 196 185 193 165 177 178 190 187 173 183 142 204
173 174 184 204 152 187 167 187 178 180 166 175 165 185 175 163 176 195 152 183 194 190 194 158 191 200 195 194 198 180 178 188 182 185 182 183 190 184 193 196 175 190 194 196 188
204 187 184 145 168 204 177 210 210 184 182 165 173 189 173 160 154 185 172 212 174 207 182 200 189 189 199 187 181 183 190 186 184 182 181 191 197 168 199 182 191 205 206 205 204
189 197 186 178 194 193 191 190 179 190 218 208 195 165 175 191 179 143 161 219 179 160 185 197 181 186 193 185 205 179 212 184 163 179 192 183 188 204 200 182 180 198 185 183 207
226 205 199 188 197 205 201 198 183 222 188 241 181 200 190 187 199 191 206 191 175 170 204 192 181 190 198 199 204 209 212 177 198 183 193 229 186 194 226 213 225 211 204 206 174
225 234 226 200 223 210 235 217 238 176 189 216 227 89 206 195 199 196 183 211 196 188 182 202 193 208 212 207 211 180 201 198 186 236 215 221 236 229 147 196 233 234 234 236 260
208 216 203 166 207 186 228 219 213 234 209 214 202 226 221 200 199 198 209 201 197 202 200 207 199 202 202 205 196 212 196 195 217 228 237 195 184 227 243 245 240 221 158 212 204
224 229 227 222 223 227 211 223 202 222 205 195 202 195 212 207 209 201 192 204 197 207 181 195 205 198 200 195 200 197 198 171 180 211 223 221 231 233 233 240 235 239 226 183 246
262 256 245 252 244 234 212 202 233 245 213 225 189 199 210 191 192 199 189 195 206 188 184 192 226 203 205 195 212 204 200 214 213 219 180 232 228 222 234 236 235 233 224 243 235
279 275 279 279 279 281 241 266 268 260 245 247 253 222 213 182 198 199 202 212 211 198 221 216 233 223 214 213 203 208 210 201 216 212 215 210 224 219 227 154 220 230 247 236 248
366 370 369 358 362 363 378 322 291 264 271 233 257 260 252 244 252 237 247 235 208 216 221 209 242 228 217 208 196 198 207 206 214 208 210 216 232 224 220 203 180 229 211 234 245
367 366 369 365 369 366 370 375 367 370 363 349 342 332 265 258 251 253 257 240 227 223 228 230 235 233 221 208 202 207 208 210 213 211 213 217 216 226 219 194 219 218 223 236 233
360 364 349 349 372 374 377 376 371 357 342 343 345 340 328 315 215 300 267 250 255 241 235 231 236 231 223 217 213 210 212 213 215 220 176 218 222 190 221 232 227 221 227 224 241
388 421 418 362 357 355 356 363 364 356 344 329 327 319 313 319 309 295 291 282 282 264 245 236 238 229 222 219 224 218 217 219 212 218 214 208 211 232 224 221 229 221 217 240 234
461 455 410 397 378 368 239 369 362 351 344 331 327 312 317 318 297 292 283 275 273 274 257 254 227 235 230 225 217 220 212 216 221 212 220 214 223 223 227 217 173 220 236 237 245

GFSSW_2pvu_pres_153.txt.gz
Presure
165 181 166 142 182 170 174 144 187 177 176 159 171 177 180 183 151 174 178 155 166 156 163 133 183 160 180 203 190 142 182 175 163 182 185 181 178 192 185 196 191 206 198 202 207
169 172 143 169 171 144 164 166 193 182 181 181 185 177 179 175 162 178 175 179 154 157 143 187 179 192 168 195 170 137 139 128 156 149 161 172 181 174 167 189 174 196 207 192 200
131 169 157 142 141 171 164 166 194 181 174 175 173 180 175 169 180 179 178 173 172 163 140 128 193 163 193 185 181 174 172 177 133 125 179 178 176 174 181 175 182 169 196 195 192
158 155 166 151 127 167 162 171 193 146 181 179 161 168 188 185 163 180 174 182 185 170 184 160 166 172 184 182 176 169 180 175 172 183 173 177 178 183 173 185 188 170 218 208 197
158 155 134 141 148 181 190 185 183 181 186 181 163 177 186 181 153 162 179 166 184 183 171 181 192 173 182 176 165 168 162 175 168 166 204 177 177 172 166 165 161 175 189 163 187
161 166 158 155 183 153 185 185 153 148 177 175 175 180 176 162 179 174 172 182 183 188 163 188 166 183 177 181 187 171 189 173 185 210 203 220 201 180 185 168 177 169 213 163 200
188 150 192 125 183 191 145 139 165 184 178 179 142 161 180 158 172 141 150 179 167 181 167 182 169 164 177 164 191 160 201 154 164 203 177 216 211 196 207 196 208 215 214 207 197
158 143 192 157 173 184 140 132 176 170 168 175 180 131 179 182 170 165 170 149 150 171 173 140 174 177 182 181 181 178 200 169 194 194 202 166 183 206 164 203 197 203 210 207 203
174 172 169 156 184 196 197 187 175 172 168 174 170 167 145 175 158 157 168 159 165 177 161 126 172 154 168 172 154 179 173 161 187 192 186 217 190 203 207 196 141 189 195 205 196
148 173 195 143 184 190 180 186 164 201 183 180 170 169 171 170 133 156 164 172 125 169 171 169 160 179 181 164 184 181 172 174 190 183 196 179 198 178 172 171 179 191 189 184 197
186 177 194 181 195 176 149 160 185 190 195 178 178 176 157 169 152 173 172 171 170 172 175 140 166 180 158 168 166 187 193 185 192 185 185 171 182 201 190 166 181 186 181 193 190
161 203 134 179 180 183 161 172 180 209 203 191 178 171 175 166 173 168 159 153 165 174 178 178 177 145 148 168 186 184 181 166 175 192 172 187 185 183 192 191 201 193 183 189 133
177 183 179 157 187 170 169 201 174 189 225 199 185 170 170 173 181 182 185 178 179 175 173 177 168 177 182 158 177 189 177 174 165 160 185 185 192 177 182 198 176 170 215 191 191
194 181 184 160 182 178 190 201 200 154 208 220 191 179 184 173 168 170 168 172 169 156 169 161 169 175 168 170 175 184 179 182 168 173 175 190 190 168 187 189 185 197 199 180 184
205 195 197 207 191 201 148 201 157 195 162 225 190 194 189 184 178 174 170 168 164 170 171 184 180 165 177 182 185 178 177 165 171 179 195 203 193 187 154 171 193 204 198 193 191
207 205 205 166 191 184 180 143 219 219 213 215 221 200 194 191 183 181 180 186 186 179 181 187 189 181 158 188 192 199 201 183 179 177 198 197 195 214 183 197 187 192 189 198 221
214 220 218 227 222 219 219 218 220 224 219 190 129 221 203 200 163 186 182 177 181 176 185 160 183 170 189 189 192 183 185 165 181 221 215 209 208 198 160 210 208 202 223 225 239
227 221 217 224 219 227 219 220 229 227 220 213 211 217 214 189 192 185 186 182 189 186 190 189 189 179 199 200 198 191 157 206 197 216 211 189 220 218 199 198 197 215 217 208 203
244 236 229 217 226 202 213 233 238 224 224 225 221 217 202 207 198 196 196 194 189 197 154 186 174 193 185 204 203 200 190 183 207 192 195 209 217 164 189 186 197 210 207 210 200
247 250 231 238 241 239 236 244 239 225 225 150 215 219 216 206 211 193 199 200 199 177 189 189 189 191 187 196 197 204 203 197 183 207 206 212 185 191 180 204 210 192 200 206 202
258 252 250 245 249 250 253 238 239 238 223 177 229 193 217 211 210 198 201 208 199 200 202 205 198 201 196 203 204 199 208 192 213 216 214 202 207 177 209 189 192 207 204 195 199
246 253 243 263 247 257 243 258 236 249 246 231 243 205 227 224 209 223 221 206 208 203 202 187 195 211 207 193 212 210 208 203 200 199 219 213 205 202 206 185 190 218 215 225 214
255 249 253 246 251 252 246 258 259 236 239 97 244 249 224 222 237 225 221 219 211 197 199 201 195 208 212 211 221 216 211 207 208 211 202 202 193 216 209 188 212 201 202 213 221
271 261 232 256 255 257 249 246 247 252 231 241 237 235 251 242 257 79 234 228 228 209 207 198 200 212 221 211 204 213 206 212 217 196 211 210 212 207 207 204 197 207 211 220 234
320 339 312 283 266 260 252 252 250 241 246 235 244 240 234 232 234 243 229 83 227 226 226 229 226 209 216 150 212 219 206 206 214 217 211 210 194 212 209 219 211 235 239 226 234
364 364 357 357 286 269 284 261 258 257 243 246 243 90 240 244 243 244 256 254 246 224 219 227 224 237 225 222 235 222 221 213 216 215 212 222 220 222 221 223 226 244 237 236 233
359 365 371 375 368 288 351 367 300 281 269 104 170 258 264 278 210 351 355 288 262 232 254 257 258 164 254 249 263 269 236 242 254 243 243 241 238 242 246 235 239 227 223 233 234

GFSSW_2pvu_pres_159.txt.gz
Presure
163 166 152 192 165 173 166 176 174 126 175 167 161 173 140 168 168 155 142 165 168 157 165 181 105 152 143 156 166 178 177 139 188 181 182 185 188 146 130 145 120 183 148 176 126
175 125 184 165 167 172 166 168 152 154 141 156 147 168 151 181 130 172 164 152 176 158 179 144 187 180 180 177 185 140 164 170 181 163 148 132 114 146 162 180 180 178 178 172 184
179 173 176 171 147 139 163 153 131 149 177 137 175 119 165 144 171 173 106 174 155 159 156 187 183 192 182 186 138 175 175 178 184 169 181 170 174 160 153 151 172 168 177 190 199
174 168 173 176 172 169 177 180 169 165 174 166 168 158 160 155 169 165 164 162 169 176 193 190 186 191 184 186 189 172 176 178 189 167 176 181 186 192 144 181 170 167 171 217 215
175 178 161 172 171 145 170 158 164 160 130 167 156 172 158 165 167 173 156 167 140 184 195 191 189 167 183 189 186 186 178 165 187 185 177 178 182 168 178 162 196 185 163 173 107
136 174 181 179 165 156 163 165 158 174 161 165 161 157 142 169 174 164 153 160 195 195 150 175 191 168 179 172 178 176 175 179 179 183 180 167 161 165 176 183 187 175 175 179 206
194 174 177 143 138 173 131 173 142 171 146 145 126 169 169 176 166 132 188 132 194 186 191 190 189 184 188 180 164 180 179 175 172 166 177 178 174 158 176 173 179 185 177 173 167
166 198 174 183 200 148 174 173 157 170 135 156 184 201 151 148 177 174 178 181 177 189 180 180 187 173 193 177 185 179 179 170 169 151 174 169 177 155 180 167 194 178 193 186 194
140 147 188 202 169 159 122 149 148 175 136 162 185 186 189 157 171 156 192 189 180 190 171 189 181 173 185 168 183 180 181 162 175 177 174 181 164 190 167 173 179 177 186 172 174
204 153 157 153 184 153 172 134 166 193 197 161 172 167 158 166 175 170 191 183 176 165 199 212 184 174 175 171 181 174 175 175 179 172 170 176 167 179 160 190 186 159 188 182 190
164 172 144 173 132 148 142 170 186 149 196 172 97 142 154 148 103 182 159 187 176 177 168 188 195 190 187 186 179 134 176 168 173 176 171 179 171 178 181 189 164 159 188 180 186
174 163 125 176 150 156 179 174 170 150 141 146 152 201 143 172 159 163 208 180 194 182 170 178 160 169 186 185 179 176 170 173 177 176 170 170 169 176 178 186 184 178 176 178 186
168 171 174 176 152 136 180 163 183 168 172 160 164 171 157 144 196 177 175 171 196 189 173 179 159 183 187 194 182 176 176 177 177 150 178 164 177 157 176 178 171 158 168 177 175
163 154 155 136 128 177 176 171 147 165 188 183 165 193 157 197 207 149 171 201 148 159 158 154 162 189 175 169 193 190 181 180 175 176 176 178 178 176 176 189 177 179 178 172 162
184 179 184 165 169 187 197 172 199 161 174 204 184 200 199 156 182 164 157 195 164 185 200 173 188 168 190 174 165 168 185 182 186 183 181 182 183 187 188 178 173 177 171 173 197
158 194 186 207 175 153 172 208 207 162 208 139 153 170 174 198 199 157 167 156 165 192 174 172 179 173 177 196 188 213 203 191 186 186 197 192 193 185 184 185 182 186 187 188 184
232 203 209 192 230 199 227 226 205 220 145 217 181 175 212 179 180 206 200 178 189 186 180 187 189 196 208 209 185 212 212 203 192 187 190 184 185 183 163 181 182 184 191 195 197
229 230 245 231 231 233 228 226 192 223 219 216 219 218 216 214 213 213 205 202 203 194 206 204 190 186 202 208 204 209 212 210 212 200 186 188 188 188 165 182 189 194 198 191 197
241 240 236 233 232 230 230 227 225 213 226 229 137 223 218 215 212 213 211 207 207 199 209 209 203 202 154 150 159 209 207 210 210 211 217 211 198 194 195 201 205 206 206 205 195
253 256 255 251 250 245 243 239 232 230 232 228 123 227 228 205 215 216 210 213 209 214 213 209 209 204 194 199 205 212 207 210 214 204 203 213 212 207 199 198 200 198 201 200 201
263 261 256 257 262 263 257 249 227 243 243 245 234 235 237 222 224 218 215 215 213 205 210 214 203 206 203 202 204 210 209 207 209 215 218 216 216 211 205 206 204 202 201 203 208
295 285 272 272 269 263 264 265 261 261 255 258 242 244 232 227 233 227 226 221 213 210 199 203 224 214 212 203 204 205 199 208 210 210 214 213 214 216 211 210 210 210 214 206 203
311 309 300 290 292 290 283 280 281 279 268 269 253 257 245 240 239 228 241 222 232 226 219 217 220 192 189 210 214 205 121 205 216 212 213 216 214 82 210 161 202 206 207 208 210
316 318 320 313 311 304 294 293 291 282 283 276 268 266 243 236 233 245 241 235 229 235 238 228 232 227 224 203 225 206 219 212 155 213 209 211 210 215 215 215 220 222 221 220 212
321 320 316 312 310 307 304 304 301 294 284 279 286 277 266 259 258 231 236 231 232 242 232 240 236 229 239 232 227 221 231 222 216 218 217 213 212 207 215 219 213 208 211 225 223
350 362 360 359 325 318 309 310 306 293 302 293 290 281 284 292 272 247 233 233 239 237 238 241 252 242 242 244 92 240 235 227 227 226 227 222 217 208 212 220 228 229 228 218 226
327 339 339 343 358 346 335 331 327 314 307 305 301 287 284 286 280 275 251 131 232 232 129 248 246 243 239 239 238 240 236 234 230 229 227 230 230 224 227 225 231 237 242 237 231

GFSSW_2pvu_pres_162.txt.gz
Presure
169 178 138 150 176 175 174 180 159 193 172 169 166 171 169 162 152 163 168 113 170 166 182 174 153 165 159 144 162 187 169 186 184 178 178 171 179 186 188 171 190 160 137 166 183
186 172 178 187 180 179 177 171 172 179 164 154 168 164 163 180 159 153 171 160 138 172 165 149 141 114 151 163 151 192 184 185 131 181 183 180 168 179 182 176 187 179 133 145 157
145 194 176 154 178 180 177 184 173 179 174 174 164 174 137 166 148 169 180 141 172 171 161 176 177 155 167 115 181 200 190 182 187 171 99 145 169 182 173 180 142 176 176 176 172
182 177 154 182 160 180 177 176 131 169 169 175 149 163 172 145 171 168 164 163 166 155 168 167 181 167 169 175 203 200 189 184 182 185 185 172 175 180 184 154 183 178 187 172 148
154 171 169 171 172 158 168 180 168 118 146 163 160 166 162 168 163 166 150 171 167 162 157 172 177 173 180 200 201 191 186 165 179 182 144 183 181 176 186 186 171 179 171 166 176
182 138 162 179 171 174 175 178 155 163 168 97 141 158 141 163 161 163 168 151 164 160 161 187 167 191 192 192 197 190 175 175 181 174 182 182 171 180 189 169 139 169 166 164 166
218 157 186 145 168 175 166 131 157 159 136 156 168 118 164 168 161 166 167 152 180 186 141 192 200 175 207 203 196 141 184 198 175 182 173 171 176 177 166 173 173 170 178 165 183
149 184 153 140 220 161 144 181 165 172 171 164 150 139 150 163 165 144 171 148 181 207 138 192 174 196 191 200 190 179 181 182 172 179 180 170 178 180 181 176 173 168 182 186 163
158 173 144 152 184 145 176 192 146 170 149 183 152 157 169 174 162 182 154 150 162 144 157 181 191 186 193 193 189 194 185 177 175 183 172 183 181 163 176 177 170 174 179 169 171
138 141 160 206 157 182 167 140 155 136 206 175 160 166 129 157 174 160 158 187 172 170 168 170 164 161 185 156 179 200 188 185 184 187 177 180 178 179 179 186 179 180 170 174 181
198 148 175 221 166 174 182 147 173 142 168 158 128 164 126 172 155 128 174 186 156 169 204 148 156 194 175 179 177 179 183 184 187 185 187 185 180 179 176 169 171 179 186 167 180
189 204 166 191 137 162 172 163 175 147 159 128 187 168 148 163 171 179 97 167 146 187 174 170 183 164 187 165 188 163 175 179 183 178 177 189 154 181 174 144 179 179 180 171 178
137 161 166 159 183 148 178 144 158 155 167 151 184 180 154 147 156 164 170 169 173 164 173 182 171 188 160 178 188 177 181 183 183 163 190 204 198 181 180 166 176 178 181 172 180
166 168 180 162 180 181 167 176 171 164 148 165 154 164 144 156 166 158 155 174 156 165 193 199 140 158 194 169 172 175 149 167 176 179 187 183 192 197 191 186 179 179 179 179 181
155 170 191 129 156 186 162 146 150 141 176 147 135 149 144 133 177 159 163 194 158 170 201 197 196 196 157 184 190 169 175 166 181 175 175 172 179 167 167 174 184 185 184 179 182
171 198 211 209 171 200 156 210 190 166 149 173 198 153 172 197 198 204 162 195 164 195 167 187 166 195 188 180 169 155 154 173 181 178 169 174 175 178 183 201 192 188 186 185 187
186 206 174 185 203 176 163 176 200 180 150 208 149 160 178 162 203 155 171 169 163 191 148 204 184 164 197 197 186 168 165 173 194 182 184 190 175 201 79 152 198 196 191 190 189
210 215 218 213 214 215 215 211 169 215 168 170 208 224 177 199 201 215 157 203 210 206 207 189 193 207 199 192 200 194 195 200 199 200 198 207 202 208 213 204 200 194 187 189 188
229 229 228 226 229 225 224 228 232 220 221 226 229 226 223 97 218 213 219 214 210 203 207 214 199 205 204 202 196 199 203 197 207 206 203 217 168 209 201 211 210 70 207 207 206
244 242 243 241 240 238 240 246 242 240 236 232 230 227 224 222 226 220 218 217 209 208 211 203 206 203 206 200 203 206 211 200 207 211 210 215 212 207 204 209 211 208 210 210 204
258 257 252 251 249 252 254 252 248 247 241 239 233 114 228 228 229 224 221 220 220 212 215 198 217 213 209 206 207 207 210 209 214 213 214 212 211 206 198 209 212 208 204 209 210
279 273 270 266 263 265 262 256 209 77 255 253 251 244 239 237 237 239 92 236 227 227 219 223 225 223 223 216 208 209 208 210 215 211 214 210 206 206 209 211 211 215 214 210 210
300 305 297 298 292 287 284 273 269 268 266 269 266 260 255 253 252 251 252 244 236 232 231 233 231 227 227 220 210 208 218 210 213 219 215 211 202 199 210 202 113 209 210 211 212
336 326 332 332 321 313 312 303 293 292 193 177 281 278 282 281 276 273 257 252 242 238 236 242 246 243 231 228 223 219 220 146 216 204 216 214 224 216 197 202 207 212 212 209 211
334 327 324 333 325 319 317 317 316 311 310 307 303 295 291 295 293 293 285 269 253 252 252 255 251 248 248 199 229 233 226 219 229 224 225 213 225 132 105 232 222 228 211 221 215
343 340 333 327 315 315 312 310 308 305 308 309 305 309 307 303 294 296 295 295 288 278 270 257 257 248 250 249 246 240 227 239 238 224 226 232 230 219 230 240 236 229 222 230 228
357 350 341 170 340 337 336 329 319 310 307 304 299 294 301 299 298 296 294 289 292 288 284 274 268 255 248 247 222 242 242 234 233 233 235 232 235 224 235 234 143 230 236 231 231